ECMWFFLT1_250_rhum_093.txt.gz
RH
5 5 5 5 5 5 5 5 4 4 4 4 4 4 4 4 4 4 4 4 4 4 4 5 5 5 5 5 5 5 5 5 6 6 6 6 7 7 7 9 13 20 27 35 43 47 52 57 60 58 49 37 29 26 28 30 28 27 31 35 38 41 43
4 5 4 4 4 4 4 4 4 4 4 4 4 4 4 4 3 3 4 3 3 4 3 4 4 4 5 5 5 5 5 5 5 5 6 6 6 7 7 7 8 12 19 28 36 42 46 51 54 56 54 47 36 28 25 28 29 28 28 30 33 36 40
4 4 4 4 4 4 4 4 4 4 3 3 3 3 3 3 3 3 3 3 3 3 3 3 3 3 4 4 4 4 4 5 5 5 5 6 6 6 6 7 7 8 12 20 30 37 41 46 49 50 51 49 43 36 28 25 27 29 28 28 29 31 35
5 4 4 4 4 4 4 4 3 3 3 3 3 3 3 3 3 3 3 3 3 3 3 3 3 3 3 3 3 4 4 4 5 5 5 5 5 6 5 6 6 7 7 11 20 31 37 40 43 46 47 46 43 41 36 28 24 26 28 28 28 29 31
4 4 4 4 4 4 4 4 4 3 3 3 3 3 3 2 3 2 2 3 2 3 3 3 3 3 3 3 3 3 4 4 4 4 4 4 4 5 5 5 5 6 7 7 11 21 31 37 39 40 44 45 41 40 40 34 28 24 25 27 28 29 31
4 4 4 4 3 4 3 3 4 3 3 3 3 3 3 3 3 3 3 3 2 3 2 2 3 3 3 3 3 3 3 3 3 4 4 4 4 4 5 5 5 5 6 7 7 11 21 31 36 37 39 43 41 37 37 36 32 28 25 24 25 27 30
3 3 3 3 3 3 3 3 3 3 3 3 3 3 3 3 3 3 3 3 3 3 3 2 3 2 2 3 3 3 3 3 3 3 3 3 4 4 4 4 5 5 5 6 7 8 12 20 30 35 36 38 38 36 35 34 34 33 30 26 24 25 27
3 3 3 3 3 3 3 3 3 3 3 3 3 3 3 3 3 3 3 3 3 3 3 3 3 2 2 2 2 3 3 3 3 3 3 3 3 3 4 4 4 4 4 5 5 6 8 11 19 28 34 36 35 34 35 36 34 34 33 31 27 24 24
3 3 3 3 3 3 3 3 3 3 3 3 3 3 3 3 3 3 3 3 3 3 3 3 2 2 2 2 2 2 2 3 3 3 3 3 3 3 3 3 4 4 4 5 5 5 7 8 11 18 26 33 35 32 33 35 35 33 32 32 29 26 23
3 3 3 3 3 3 3 3 3 3 3 3 3 3 3 3 3 3 3 3 3 3 3 2 2 2 2 2 2 2 2 2 2 3 3 3 3 3 3 3 3 3 3 4 4 5 5 6 8 10 16 25 32 33 32 33 33 31 30 30 29 27 25
3 3 3 3 3 3 3 3 2 2 2 2 2 2 3 3 3 3 3 3 3 3 2 2 2 2 2 2 2 2 2 2 2 2 2 3 3 3 3 3 3 3 3 3 4 4 5 5 6 8 10 15 22 29 32 32 30 27 27 29 29 28 28
3 3 3 3 3 3 3 3 3 2 2 2 2 2 2 2 3 3 3 3 3 3 2 2 2 2 2 2 2 2 2 2 2 2 2 2 2 2 3 3 2 3 3 3 3 4 4 5 5 7 8 10 13 19 26 30 30 27 24 26 27 28 29
3 3 3 3 3 3 3 3 3 3 2 2 2 2 2 2 2 3 3 2 2 2 3 2 2 2 2 2 2 2 2 2 2 2 2 2 2 2 2 2 3 3 3 3 3 3 4 4 5 5 7 8 9 12 16 22 26 26 24 23 24 25 27
3 3 3 3 3 3 3 3 3 3 3 3 2 2 2 2 2 2 2 2 2 2 2 2 2 2 2 2 2 2 2 2 2 2 2 2 2 2 2 2 3 3 3 3 3 3 3 4 4 5 6 7 8 9 10 13 17 20 20 21 21 22 23
3 3 3 3 3 3 3 3 3 3 3 2 2 2 2 2 2 3 3 3 2 2 2 2 2 2 2 2 2 2 2 2 2 2 2 2 2 2 2 2 2 3 3 3 3 3 3 3 4 5 5 6 7 8 9 9 10 12 13 15 17 19 20
3 3 3 3 3 3 3 3 3 3 3 2 2 2 2 3 3 3 3 2 2 2 2 2 2 2 2 2 2 2 2 2 2 2 2 2 2 2 2 2 2 2 2 3 3 3 3 3 4 4 4 5 6 6 7 8 8 9 9 10 12 15 17
3 3 3 3 3 4 4 3 3 2 2 2 2 2 3 3 3 3 3 3 2 3 2 2 2 2 2 2 2 2 2 2 2 2 2 2 2 2 2 2 2 2 2 2 3 3 3 3 3 3 4 4 5 5 6 7 7 8 8 8 8 10 12
3 3 3 3 4 4 4 3 3 2 2 2 2 2 3 3 3 3 3 3 3 3 2 2 2 2 2 2 2 2 2 2 2 2 2 2 2 2 2 2 2 2 2 2 2 2 3 3 3 3 3 3 4 5 5 5 6 6 7 7 7 8 8
3 3 3 4 4 4 4 3 3 2 2 2 2 3 3 3 3 3 3 3 3 3 2 2 2 2 2 2 2 2 2 2 2 2 2 2 2 2 2 2 2 2 2 2 2 2 2 3 3 3 3 3 3 4 4 4 5 5 6 6 7 7 7
3 3 4 4 4 4 4 3 3 2 2 2 2 3 3 3 3 3 3 3 2 2 3 2 3 3 2 3 3 2 2 2 2 2 2 2 2 2 2 2 2 2 2 2 2 2 2 2 2 3 3 3 3 3 3 4 4 4 5 5 5 6 7
3 3 4 4 4 4 4 3 3 3 2 3 3 3 3 3 3 3 3 3 2 2 3 3 3 3 3 2 3 2 2 2 2 2 2 2 2 2 2 2 2 2 2 2 2 2 2 2 2 2 3 3 3 4 3 3 4 4 4 5 5 5 6
3 3 4 4 4 4 4 3 3 3 3 3 3 3 3 3 3 3 3 3 3 2 3 3 2 3 3 3 3 3 2 2 2 2 2 2 2 2 2 2 2 2 2 2 2 2 2 2 3 2 2 3 3 3 3 3 3 3 3 4 5 4 5
3 3 4 4 4 4 4 3 3 3 3 3 3 3 3 3 3 3 3 3 3 2 3 3 2 3 3 2 3 3 2 3 2 2 2 2 2 2 2 2 2 2 2 2 2 3 2 2 3 3 2 3 2 2 3 3 3 3 3 3 4 4 4
3 3 4 4 4 4 4 3 3 3 3 3 3 3 3 3 3 3 3 3 3 3 3 3 2 3 3 2 3 3 2 3 2 2 2 2 2 2 2 2 3 2 3 2 2 3 3 2 3 3 3 3 3 2 3 2 2 3 3 3 3 3 4
3 3 4 4 4 4 4 3 3 3 3 3 3 3 3 3 3 3 3 3 3 3 3 3 3 3 3 3 3 3 3 3 3 3 3 2 2 3 2 2 3 2 2 3 2 2 3 2 3 3 3 3 3 3 3 3 2 2 3 3 3 3 3
4 3 3 4 4 4 4 4 4 3 3 3 3 3 3 3 3 3 3 3 3 3 3 3 3 3 3 3 3 3 3 3 3 3 3 3 2 3 2 2 3 2 2 3 2 2 2 2 3 3 3 3 3 3 3 3 3 3 2 2 3 3 3
4 3 3 4 4 4 4 4 4 4 3 4 3 3 4 3 3 3 3 3 3 3 3 3 3 3 3 3 3 3 3 3 3 3 3 3 3 3 3 2 2 3 2 2 2 3 3 2 2 3 3 3 3 3 3 3 3 3 3 2 2 3 3
4 3 3 4 4 4 4 4 4 4 4 4 4 3 4 3 3 3 3 3 3 3 3 3 3 3 3 3 3 3 3 3 3 3 3 3 3 3 3 3 2 2 2 2 2 3 3 3 3 3 3 3 3 3 3 3 3 3 3 3 3 3 3
5 4 4 4 4 4 4 4 4 4 4 4 4 4 4 4 3 3 3 3 4 3 3 3 3 3 3 3 3 3 3 3 3 3 3 3 3 3 3 3 3 3 2 3 2 2 3 3 3 3 3 3 3 3 3 3 3 3 3 3 3 3 3
5 5 5 5 4 4 4 4 4 4 4 4 4 4 4 4 3 4 4 3 3 4 3 3 4 3 3 4 3 3 3 3 3 3 3 3 3 3 3 3 3 3 3 3 3 2 3 3 3 3 3 3 3 3 3 3 3 3 3 3 3 3 3
5 5 5 5 4 4 4 4 4 4 4 4 4 4 4 4 4 3 4 3 4 4 4 3 4 4 3 4 4 3 4 4 3 3 3 3 3 3 3 3 3 3 3 3 3 3 3 3 3 3 3 3 3 3 3 3 3 3 3 3 3 3 3
5 5 5 5 5 5 5 4 5 5 5 4 5 4 4 4 4 4 4 4 4 4 4 4 4 4 4 4 4 4 3 3 3 3 3 3 3 3 3 3 3 3 3 3 3 3 3 3 3 3 3 3 3 3 3 3 3 3 3 3 3 3 3
6 5 5 5 5 5 5 5 5 5 5 5 5 4 4 4 4 4 4 4 4 4 4 4 4 4 4 4 3 3 3 3 3 3 3 3 3 3 3 3 3 3 3 3 3 3 3 3 3 3 3 3 3 3 3 3 3 3 3 3 3 3 3
5 6 5 5 5 5 5 5 5 5 5 5 5 5 4 4 4 4 4 4 4 4 4 4 4 4 4 4 3 3 3 3 3 3 3 3 3 3 3 3 3 3 3 3 3 3 3 3 3 3 3 3 3 3 3 3 3 3 3 3 3 3 3
5 5 5 5 5 5 5 5 5 5 5 5 5 5 4 4 4 4 5 4 4 4 4 4 4 4 4 4 4 4 4 3 3 4 4 4 4 4 4 4 4 4 3 3 3 3 3 3 3 3 3 3 3 3 3 3 3 3 3 3 3 3 3
5 5 6 6 5 5 5 5 5 6 5 5 5 5 5 5 4 4 5 5 4 4 4 4 4 4 4 4 4 4 4 4 4 4 4 4 4 4 4 4 4 4 4 4 4 4 3 3 3 3 3 3 3 3 3 3 3 3 3 3 3 3 3

ECMWFFLT1_250_rhum_096.txt.gz
RH
5 5 5 4 4 4 4 4 4 4 4 4 4 4 4 4 4 4 4 4 4 4 4 4 4 4 4 4 4 4 4 4 4 4 4 4 4 4 4 4 4 4 5 7 8 8 9 10 10 11 13 18 24 28 31 31 31 33 35 37 39 41 41
5 5 5 4 4 4 4 4 4 4 4 4 4 4 4 4 4 4 4 4 4 4 3 3 3 3 3 3 3 4 4 4 3 3 3 3 3 3 4 4 4 4 4 5 7 7 8 9 10 10 10 12 16 22 27 30 30 30 32 35 37 40 42
5 5 5 4 4 4 4 4 4 4 4 4 4 4 4 4 4 4 4 4 4 4 4 3 3 3 3 3 3 3 3 3 3 3 3 3 3 3 3 3 3 4 4 4 5 6 7 8 9 9 10 10 11 14 20 26 29 29 29 31 34 38 41
4 4 4 4 4 4 4 4 3 4 4 3 3 4 4 4 4 4 4 4 4 4 4 4 3 3 3 3 3 3 3 3 3 3 3 3 3 3 3 3 3 3 3 4 4 5 6 7 8 9 9 9 10 10 13 19 25 29 28 28 31 34 38
4 4 4 4 4 4 3 4 4 3 3 3 3 3 4 4 4 4 4 3 4 4 4 4 3 3 3 3 3 3 3 2 2 2 2 2 3 3 3 3 3 3 3 3 4 4 5 6 6 8 8 8 9 9 10 12 17 24 27 27 28 30 34
4 4 4 4 4 4 4 4 4 4 4 4 4 4 4 4 4 4 4 3 3 3 3 3 3 3 3 3 3 3 3 3 2 2 2 2 2 2 3 3 3 3 2 3 3 4 5 5 6 6 7 8 8 8 9 10 11 16 23 26 26 27 30
4 4 4 4 4 3 3 3 3 4 4 3 4 4 3 4 4 4 4 3 3 3 3 3 3 3 3 2 2 3 2 2 2 2 2 2 2 2 2 2 2 3 2 2 3 3 4 5 5 6 6 7 7 8 8 9 9 11 16 22 25 26 27
4 4 4 3 4 3 3 4 3 3 3 3 3 3 3 3 3 3 3 3 3 3 3 3 3 2 2 2 2 2 2 2 2 2 2 2 2 2 2 2 2 2 3 2 3 3 3 4 4 5 6 6 6 7 7 8 9 9 10 15 20 24 25
4 4 4 3 3 3 3 3 3 3 3 3 3 3 3 3 3 3 3 3 3 3 3 3 3 3 3 2 3 2 2 2 2 2 2 2 2 2 2 2 2 2 2 2 3 3 3 3 4 4 5 5 6 6 6 7 8 9 9 10 14 19 22
4 4 4 3 3 3 4 3 4 4 3 3 3 3 3 3 3 3 3 3 3 3 2 3 2 3 3 2 3 3 2 2 2 2 2 2 2 2 2 2 2 2 2 2 2 3 3 3 3 4 4 5 5 5 6 6 7 8 9 9 9 13 18
4 4 4 4 4 4 4 4 4 4 4 4 3 3 3 3 3 3 3 3 3 2 3 3 2 3 3 2 3 3 2 3 2 2 2 2 2 2 2 2 2 2 2 2 2 2 3 3 3 4 4 4 5 5 5 6 6 6 8 9 8 9 13
4 4 4 4 4 4 4 4 4 4 4 4 3 3 3 3 3 3 3 3 3 3 3 3 3 3 3 2 3 2 2 2 2 2 2 2 2 2 2 2 2 2 2 2 2 2 2 3 3 3 4 4 4 5 5 5 5 6 7 8 8 9 10
4 4 4 4 4 4 4 4 4 4 4 3 3 3 3 3 3 3 3 3 3 3 3 3 3 3 2 2 2 2 2 2 2 2 2 2 2 2 2 2 2 2 2 2 2 2 2 2 3 3 4 4 4 4 5 5 5 5 6 7 7 8 9
4 4 4 3 4 4 4 4 4 4 4 4 4 3 3 3 3 4 4 4 3 3 3 3 3 3 3 2 2 2 2 2 2 2 2 2 2 2 2 2 2 2 2 2 2 2 2 2 3 3 3 4 4 4 4 5 5 5 5 6 7 7 8
4 4 4 4 4 4 4 4 4 4 4 4 3 3 3 3 4 4 4 4 4 3 3 3 3 2 2 2 2 2 2 2 2 2 2 2 2 2 2 2 2 2 2 2 2 2 2 2 2 3 3 4 4 3 4 4 5 5 5 5 6 7 7
4 4 4 4 4 4 5 4 4 4 4 4 3 3 3 4 4 4 4 3 3 3 3 3 3 3 3 2 2 2 2 2 2 2 2 2 2 2 2 2 2 2 2 2 2 2 2 2 2 2 3 3 4 3 3 4 4 4 5 5 5 6 7
4 4 4 4 4 4 5 5 4 4 4 3 3 3 3 4 4 4 4 3 3 3 3 3 3 3 3 3 2 2 2 2 2 2 2 2 2 2 2 2 2 2 2 2 2 2 2 2 2 2 2 3 3 3 3 3 4 4 4 5 5 5 6
4 4 4 4 4 4 5 5 4 4 4 3 3 3 3 4 4 4 3 3 3 3 3 3 3 3 3 3 3 3 2 2 2 2 2 2 2 2 2 2 2 2 2 2 2 2 2 2 2 2 2 2 3 3 3 3 3 4 4 4 5 5 5
4 4 4 4 4 4 5 5 5 4 4 3 3 3 4 4 4 3 3 3 3 3 3 3 3 3 3 3 3 2 3 2 2 3 3 3 3 3 2 2 2 2 2 2 2 2 2 2 3 2 2 2 3 3 3 3 3 4 4 4 4 5 5
4 4 4 4 4 4 4 6 5 4 4 3 3 3 4 4 4 3 3 3 3 3 3 3 3 3 3 3 3 2 3 2 2 2 3 3 3 3 2 2 2 2 2 2 2 2 2 2 3 3 3 3 3 3 3 3 4 4 4 4 4 5 5
4 4 4 3 4 4 4 6 6 5 4 4 3 4 4 4 4 3 3 3 3 3 3 3 3 3 3 3 3 3 2 2 2 2 2 3 3 2 2 2 2 2 2 2 2 2 2 2 3 3 3 3 3 3 3 3 3 4 4 3 4 4 4
4 4 4 3 4 4 5 6 6 5 4 4 4 4 4 4 4 4 4 4 3 3 4 3 3 3 3 3 3 3 3 3 2 2 3 3 3 3 3 3 2 2 2 2 2 2 2 3 3 3 3 3 3 3 3 3 3 3 4 3 3 4 4
5 4 4 4 4 4 4 5 6 5 4 4 4 4 4 4 4 4 4 4 4 4 3 3 3 3 3 3 3 3 3 3 3 3 3 3 3 3 3 2 3 3 2 2 2 2 2 3 3 3 3 3 3 3 3 3 3 3 3 4 3 4 4
5 4 4 4 4 4 4 5 6 5 4 4 4 4 4 4 4 4 4 4 4 4 4 4 4 3 3 3 3 3 3 3 3 3 3 3 3 3 3 3 3 3 2 2 2 2 2 2 3 3 3 3 3 3 3 3 3 3 3 4 4 4 4
5 5 4 4 4 4 4 5 6 5 5 4 4 4 4 4 4 4 4 4 4 4 4 4 4 3 3 3 3 3 3 3 3 3 3 3 3 3 3 3 3 3 3 2 2 2 2 2 2 3 3 3 3 3 3 3 3 3 3 3 4 4 4
5 5 4 4 4 4 4 5 5 5 5 5 4 4 4 4 4 4 4 4 4 4 4 4 4 4 3 3 3 3 3 3 3 3 3 3 3 3 3 3 3 3 3 3 3 3 2 2 3 3 3 3 3 3 3 3 3 3 3 3 3 4 4
6 6 5 4 4 4 4 5 5 5 5 4 4 5 4 4 4 4 4 4 4 4 4 4 4 4 3 3 4 3 3 3 3 3 3 3 3 3 3 3 3 3 3 3 3 3 3 2 3 3 3 3 3 3 3 3 3 3 3 3 3 3 4
6 6 6 5 4 4 4 4 5 4 5 5 4 5 5 4 5 5 5 5 4 4 4 4 4 4 4 3 4 3 3 4 3 3 3 3 3 3 3 3 3 3 3 3 3 3 3 3 2 3 3 3 3 3 3 3 3 3 3 3 3 3 3
7 8 7 6 5 5 4 5 5 5 4 5 5 5 5 5 5 5 5 5 5 4 4 4 4 4 4 4 4 4 3 4 3 3 4 3 3 3 3 3 3 3 3 3 3 3 3 3 3 3 3 3 3 3 3 3 3 3 3 3 3 3 3
7 8 9 8 6 5 5 5 5 5 5 5 5 5 5 5 5 5 5 5 5 5 5 4 4 4 4 4 4 3 4 4 3 3 4 4 4 4 3 3 3 3 3 3 3 3 3 3 3 3 3 3 3 3 3 3 3 3 3 3 3 3 3
7 7 9 9 8 6 5 5 5 5 5 5 5 5 5 5 5 5 5 5 5 5 5 4 4 4 4 4 4 4 4 4 4 4 4 4 4 4 4 3 3 3 3 3 3 3 3 3 3 3 3 3 3 3 3 3 3 3 3 3 3 3 3
7 7 8 9 9 8 6 6 6 6 5 5 5 5 5 5 5 5 5 5 5 5 5 4 4 4 4 4 4 4 4 4 4 4 4 4 4 4 4 4 3 3 3 3 3 3 3 3 3 3 3 3 3 3 3 3 3 3 3 3 3 3 3
8 8 7 8 8 8 7 6 6 6 6 5 5 5 5 6 6 6 5 5 5 5 5 4 4 4 4 4 4 4 4 4 4 4 4 4 4 4 4 4 4 4 4 4 3 3 3 3 3 3 3 3 3 3 3 3 3 3 3 3 3 3 3
7 7 7 7 8 8 7 6 6 6 6 6 6 6 6 6 6 6 6 5 5 5 5 5 5 4 4 4 4 4 4 4 4 4 4 4 4 4 4 4 4 4 4 4 4 4 3 4 3 3 3 3 3 3 3 3 3 3 3 3 3 3 3
7 7 7 7 7 7 8 7 6 6 6 6 6 6 6 6 6 6 6 6 5 5 5 5 5 5 4 4 4 4 4 4 4 4 4 4 4 4 4 4 4 4 4 4 4 4 4 3 4 3 3 3 3 3 3 3 3 3 3 3 3 3 3
7 7 7 7 7 7 8 8 7 6 6 6 6 6 6 6 6 6 6 6 6 5 5 5 5 5 5 4 5 5 4 5 4 4 4 4 4 4 4 4 4 4 4 4 4 4 4 3 4 3 3 3 3 3 3 3 3 3 3 3 3 3 3

ECMWFFLT1_250_rhum_099.txt.gz
RH
4 4 4 4 4 4 4 4 3 4 3 3 4 4 4 4 4 4 4 4 5 4 4 4 4 4 4 3 3 3 3 3 3 3 3 3 3 3 3 3 3 3 3 4 5 5 5 6 6 7 7 8 8 8 8 8 8 8 9 12 17 23 29
4 4 4 4 4 4 4 4 3 4 3 3 3 3 3 4 3 4 4 4 4 4 4 4 4 4 4 3 3 3 3 3 3 2 2 2 3 3 3 3 3 3 3 3 4 4 5 5 5 5 6 7 7 7 7 7 8 8 8 8 10 14 20
4 4 4 4 4 4 4 4 3 4 3 3 3 3 3 4 4 4 4 4 4 4 3 3 3 3 3 3 3 3 3 3 3 3 2 2 2 2 2 2 3 3 3 3 4 4 4 4 4 5 5 5 6 6 6 7 7 7 8 8 8 9 13
4 4 4 4 4 4 4 4 4 3 4 3 3 4 4 4 4 4 4 4 4 3 3 3 3 3 3 3 3 3 3 3 3 3 3 3 3 2 2 2 2 2 2 3 3 4 4 4 4 4 5 5 5 5 6 6 6 7 7 8 8 8 9
4 4 4 4 4 4 4 4 4 3 4 4 4 4 4 4 4 4 4 4 4 4 3 3 3 3 3 3 2 3 3 3 2 3 3 3 3 3 2 2 2 2 2 2 3 3 4 4 4 4 4 4 4 5 5 5 5 6 6 7 7 8 8
4 4 4 4 4 4 4 3 3 3 3 3 4 4 4 4 4 4 4 4 4 4 3 3 3 3 2 3 3 3 3 3 3 3 3 3 3 3 3 3 2 2 2 2 2 3 3 4 4 4 4 4 4 4 4 5 5 5 6 6 7 7 8
4 4 3 4 3 3 3 3 3 3 3 3 3 4 4 4 4 4 4 4 3 3 3 3 3 3 3 3 3 3 3 3 3 2 3 3 2 2 2 2 3 3 2 2 2 2 3 3 3 4 4 4 4 4 4 4 4 5 5 5 6 6 7
4 4 3 3 3 3 3 3 3 3 3 3 4 4 4 4 4 4 4 4 3 3 3 3 3 2 3 3 3 3 3 3 3 3 2 3 2 2 2 2 2 2 2 3 2 3 3 3 3 3 4 4 4 4 4 4 4 4 4 5 5 5 6
4 3 4 3 3 3 3 3 3 3 3 4 4 4 4 4 4 4 4 3 3 3 3 3 3 3 3 3 3 3 3 2 2 2 2 3 2 2 2 2 2 2 2 2 2 3 3 3 3 3 3 4 4 4 4 4 4 4 4 4 5 5 6
4 4 4 4 4 4 4 4 4 4 4 4 4 4 4 4 4 4 4 3 3 3 3 3 3 3 3 3 3 2 3 2 2 2 2 2 2 2 2 2 2 2 2 2 2 3 3 3 3 3 3 3 3 4 4 4 4 4 4 4 4 4 5
4 4 4 4 4 4 4 4 4 4 4 4 4 4 4 4 4 4 3 3 3 3 3 3 3 3 3 3 3 3 3 2 2 2 2 2 2 2 2 2 2 2 2 2 2 2 2 3 3 3 3 3 3 3 3 4 4 4 4 4 3 4 5
4 4 4 4 4 4 4 4 4 4 4 4 4 4 4 4 4 4 3 3 3 3 3 3 3 3 3 2 2 2 2 2 2 2 2 2 2 2 2 2 2 2 2 2 2 2 2 3 3 3 3 3 3 3 3 3 3 4 4 4 3 3 4
4 4 4 4 4 4 4 4 4 4 4 5 4 4 4 4 4 4 3 3 3 3 3 4 3 3 3 2 2 2 2 2 2 2 2 3 2 2 2 2 2 2 2 2 2 2 2 2 3 3 3 3 3 3 3 3 3 3 4 4 4 4 4
4 4 4 4 4 4 4 4 4 4 4 5 5 4 4 4 4 3 3 3 3 3 4 4 4 3 3 2 2 2 2 2 2 3 3 3 3 3 2 2 2 2 2 2 2 2 2 2 2 3 3 3 3 3 3 3 3 3 3 3 3 4 3
5 4 4 4 4 4 4 4 4 5 5 5 5 4 4 4 4 3 3 3 3 4 4 4 4 3 3 3 2 2 2 3 2 3 3 3 3 3 2 2 2 2 2 2 2 2 2 2 2 2 3 2 2 2 2 3 3 2 3 3 3 3 4
5 5 4 4 5 5 5 4 4 5 5 5 5 4 4 4 4 4 3 3 3 3 4 4 4 4 3 3 3 3 2 2 2 2 3 3 3 3 3 3 2 2 2 2 2 2 2 2 2 2 3 3 2 2 2 2 3 2 2 3 3 3 4
5 5 5 5 5 5 5 4 4 5 5 5 5 4 4 4 4 4 3 3 4 3 4 4 4 4 4 3 3 3 2 2 3 3 3 3 3 3 3 3 2 2 2 2 2 2 2 2 2 2 2 3 2 2 3 2 2 3 2 2 3 3 3
5 5 5 5 5 5 5 5 5 5 5 5 5 4 4 4 4 4 3 3 3 3 3 4 4 4 4 3 3 3 3 2 2 3 3 3 3 3 2 3 2 2 2 2 2 2 2 2 2 2 2 2 2 2 2 2 2 3 3 2 2 3 3
5 5 5 5 5 5 5 5 5 5 5 5 5 4 4 4 4 4 3 3 3 3 3 3 4 4 4 3 3 3 3 3 2 3 3 3 3 3 2 2 2 2 2 2 2 2 2 2 2 2 2 2 2 2 2 2 3 2 3 3 2 3 3
5 5 5 5 5 5 5 5 5 5 6 5 5 5 4 4 4 4 3 3 3 3 4 3 3 4 4 4 4 3 3 3 3 3 3 3 3 3 3 3 3 3 2 2 2 2 2 2 2 2 2 2 2 2 2 2 3 2 2 3 3 3 3
5 5 5 5 5 5 5 5 5 6 6 6 5 5 5 5 5 4 4 4 3 4 4 4 4 4 4 4 3 3 3 3 3 3 3 3 3 3 3 3 2 3 3 2 3 2 2 3 2 2 3 2 2 2 2 2 3 3 2 3 3 3 3
5 5 5 5 5 5 5 5 5 6 6 6 6 5 5 5 5 5 4 4 4 4 4 4 4 4 4 4 3 3 3 3 3 3 3 3 3 3 3 3 2 3 3 3 3 3 2 3 3 2 2 2 2 2 2 2 2 3 3 3 3 3 3
6 5 5 5 4 4 4 4 5 5 5 6 5 5 5 5 5 5 4 4 4 4 4 4 4 4 4 4 4 3 3 3 3 3 3 3 3 3 3 3 3 3 3 3 3 3 3 2 3 3 2 2 2 2 2 2 2 2 3 3 2 3 3
6 6 6 5 4 4 4 4 4 5 5 6 5 5 5 5 5 5 4 4 4 4 4 4 4 4 4 4 4 4 4 3 3 3 3 3 3 3 3 3 3 3 3 3 3 3 3 3 3 3 3 2 2 2 2 2 2 2 3 3 3 2 3
7 7 6 6 5 4 4 4 4 5 5 6 6 6 6 6 5 5 5 5 4 4 4 4 4 4 4 4 4 4 4 4 3 3 3 3 3 3 3 3 3 3 3 3 3 3 3 3 3 3 3 3 3 3 2 2 2 2 2 3 3 3 2
7 7 7 6 5 5 4 4 5 5 5 6 5 5 5 6 6 5 5 5 4 4 4 4 4 4 4 4 4 4 4 4 4 3 3 3 3 3 3 3 3 3 3 3 3 3 3 3 3 3 3 3 3 3 3 2 2 2 2 2 3 3 2
8 8 8 7 7 6 5 4 5 5 5 5 5 5 5 5 5 6 5 5 4 4 4 4 4 4 4 4 4 4 4 4 4 4 4 4 3 3 3 3 3 3 3 3 3 3 3 3 3 3 3 3 3 3 3 3 2 2 2 2 3 3 3
9 8 8 8 8 7 5 4 5 5 5 5 6 5 5 5 5 5 6 5 5 5 4 4 4 4 4 4 4 4 4 4 4 4 4 4 4 4 3 3 3 3 3 3 3 3 3 3 3 3 3 3 3 3 3 3 3 2 2 2 2 3 3
10 10 10 10 9 8 7 6 5 5 5 6 7 7 6 6 5 5 5 5 5 5 5 5 5 4 4 5 4 4 4 4 4 4 4 4 4 4 4 4 4 3 3 3 3 3 3 3 3 3 3 3 3 3 3 3 3 2 2 3 3 3 3
11 11 12 13 13 11 10 8 7 6 6 6 7 8 8 7 6 6 6 5 5 5 5 5 5 5 5 5 5 5 4 4 4 4 4 4 4 4 4 4 3 4 3 3 4 4 3 4 3 3 3 3 3 3 3 3 3 3 2 3 3 3 3
11 10 10 11 12 12 11 9 8 7 7 7 7 7 8 8 7 6 6 6 5 5 5 5 5 5 5 5 5 5 4 4 4 4 4 4 4 4 4 4 3 4 4 3 4 4 3 4 4 3 3 3 3 3 3 3 3 3 3 3 3 3 3
11 9 9 9 10 11 12 11 10 8 7 7 7 7 8 8 7 6 6 6 5 5 5 6 5 5 5 5 5 5 5 4 4 4 4 4 4 4 4 4 4 4 4 4 4 4 4 4 4 3 3 4 3 3 3 3 3 3 3 3 3 3 3
11 10 8 8 8 9 11 11 11 10 9 8 8 7 8 8 8 7 6 6 6 6 5 6 6 5 5 5 5 5 5 5 4 5 4 4 4 4 4 4 4 4 4 4 4 4 4 4 4 4 4 4 4 3 3 3 3 3 3 3 3 3 3
11 10 8 8 7 8 9 10 10 9 9 8 8 7 7 8 8 8 7 6 6 6 6 6 6 6 5 5 5 5 5 5 5 5 5 4 5 5 4 4 4 4 4 4 4 4 4 4 4 4 4 4 4 4 3 3 3 3 3 3 3 3 3
10 10 9 8 8 7 8 8 9 9 8 8 8 7 7 7 8 8 8 7 6 6 6 6 6 6 6 5 5 5 5 5 5 5 5 5 5 5 4 4 4 4 4 4 4 4 4 4 4 4 4 4 4 4 4 3 3 3 3 3 3 3 3
13 12 10 9 9 8 8 8 8 9 9 8 8 8 7 7 7 7 7 7 6 6 6 6 6 6 6 6 5 5 5 5 5 5 5 5 5 5 5 4 4 4 4 4 4 4 4 4 4 4 4 4 4 4 4 4 3 3 3 3 3 3 3

ECMWFFLT1_250_rhum_102.txt.gz
RH
4 4 4 4 4 4 4 4 4 4 4 4 4 4 4 4 4 4 4 4 4 4 4 4 4 3 3 3 3 3 3 3 3 3 3 3 3 3 3 3 3 3 4 5 6 6 6 5 5 5 6 6 6 6 7 7 6 6 6 6 7 8 9
4 4 4 4 4 4 4 4 4 4 4 4 4 4 4 4 4 4 4 4 4 4 4 4 4 4 3 3 3 3 3 3 3 3 3 3 3 3 3 3 3 3 3 4 5 6 6 6 6 5 5 6 6 6 6 5 6 6 6 6 6 7 7
4 4 4 4 4 4 4 4 4 4 4 4 4 4 4 4 4 4 4 4 4 4 4 4 4 4 3 3 3 3 3 3 3 3 3 3 3 3 3 3 3 3 3 3 4 5 5 5 5 5 5 5 5 5 5 5 5 5 5 6 6 6 7
4 4 4 4 4 4 4 4 4 4 4 4 4 4 5 4 4 5 4 4 4 4 4 4 4 4 3 3 3 3 3 3 3 3 3 3 3 3 3 3 3 3 3 3 4 4 5 4 5 5 5 5 5 5 5 5 5 5 5 5 5 6 7
4 4 5 5 5 5 4 4 4 4 4 4 4 4 4 4 4 4 4 4 4 4 4 4 4 4 3 3 3 3 3 3 3 3 3 3 3 3 3 3 3 3 3 3 4 4 4 4 4 4 5 5 5 5 5 5 5 5 5 4 4 5 6
5 5 5 5 4 4 4 4 4 4 4 4 4 4 4 5 4 4 4 4 4 4 4 3 3 3 3 3 3 3 3 3 3 3 3 3 3 3 3 3 3 3 3 3 3 4 4 4 3 4 4 4 4 5 5 5 5 5 4 4 4 4 4
5 5 5 4 4 4 4 4 4 4 4 4 4 4 4 5 4 4 5 4 4 4 3 3 3 3 3 3 3 3 3 3 3 3 3 3 3 3 3 3 3 3 3 3 3 3 4 4 3 3 4 4 4 4 4 4 4 4 4 4 4 4 4
5 5 4 4 5 4 4 5 4 4 4 4 4 5 4 5 4 4 5 4 4 4 3 3 3 3 3 3 3 3 3 3 3 3 3 3 3 3 3 3 3 3 3 3 3 3 3 3 3 3 3 4 4 4 4 4 4 4 4 4 4 4 4
5 5 5 4 5 5 4 5 4 4 5 4 4 5 4 5 4 4 4 4 4 4 3 3 3 3 3 3 3 3 3 3 3 3 3 3 3 3 3 3 3 3 3 3 3 3 3 3 3 3 3 3 4 4 4 4 4 4 4 4 4 4 4
5 4 5 5 5 5 4 5 4 4 5 4 5 5 5 5 5 4 4 4 4 4 3 3 3 3 3 3 3 3 3 3 3 3 4 3 3 3 3 3 3 3 3 3 3 3 3 4 3 3 3 3 3 4 3 4 4 3 3 3 3 3 4
5 5 5 5 5 5 4 4 4 5 5 5 5 5 5 5 5 5 4 4 4 4 3 3 3 3 3 3 3 3 4 4 4 4 4 3 3 3 3 3 3 3 3 3 3 3 3 3 3 3 3 3 3 3 3 3 3 3 3 3 3 3 3
5 5 5 5 5 5 5 5 5 5 5 5 5 5 5 5 5 5 5 4 4 4 4 4 3 3 3 3 4 4 4 4 4 4 3 3 3 3 3 3 3 3 3 3 3 3 3 3 3 3 3 3 3 3 3 3 3 3 3 3 3 3 3
5 5 5 5 5 5 5 5 5 5 5 5 5 5 5 5 5 5 5 5 4 4 4 4 4 4 4 4 4 4 4 4 3 3 3 3 3 3 3 3 3 3 3 3 3 3 3 3 3 3 3 3 3 3 3 3 3 3 3 3 3 3 3
5 5 5 5 5 5 5 5 5 5 5 5 5 5 5 5 5 5 5 4 4 4 4 4 4 4 4 4 4 4 4 3 3 3 3 3 3 3 3 3 3 3 3 3 3 3 3 3 3 3 3 3 3 3 3 3 3 3 3 3 3 3 3
5 5 5 5 5 5 5 5 5 6 5 5 6 6 5 5 5 5 5 4 4 4 4 4 4 5 5 5 4 4 4 3 3 3 3 3 3 3 3 3 3 3 3 3 3 3 3 3 3 3 3 3 3 3 3 3 3 3 3 3 3 3 3
6 6 6 6 6 6 6 5 6 6 6 6 6 6 6 6 5 5 5 4 4 4 4 4 5 5 5 5 4 4 4 3 3 3 3 3 3 3 3 3 3 3 3 3 3 3 3 3 3 3 3 3 3 2 3 3 3 3 3 3 3 3 3
6 6 6 6 6 6 6 6 6 6 6 6 6 6 6 6 6 5 5 5 4 4 4 4 5 5 5 5 4 4 4 3 3 4 3 3 3 3 3 3 3 3 3 3 3 3 3 3 3 3 3 3 2 2 3 3 2 3 3 3 3 3 3
6 6 6 6 6 6 6 6 6 6 6 6 6 7 6 6 6 5 5 5 4 4 4 4 5 5 5 5 5 4 4 4 4 4 4 3 3 3 3 3 3 3 3 3 3 3 3 3 3 3 3 3 3 3 2 3 3 3 3 3 3 3 3
6 6 6 6 6 7 7 7 6 6 6 6 6 7 6 6 6 6 5 5 4 4 4 4 4 5 5 5 4 4 4 4 4 4 4 4 4 3 3 3 3 3 3 3 3 3 3 3 3 3 3 2 3 3 2 3 3 2 3 3 3 3 3
7 6 6 6 6 7 7 7 7 7 6 6 6 7 7 6 6 6 6 6 5 5 5 4 5 5 5 5 4 4 4 4 4 4 4 4 4 4 3 3 3 3 3 3 3 3 3 3 3 3 3 2 3 3 3 3 3 3 3 2 2 3 3
7 6 6 6 6 7 7 8 8 7 7 6 6 6 7 7 6 6 6 6 5 5 4 4 5 5 5 5 4 4 4 4 4 4 4 4 4 4 4 4 3 3 4 3 3 3 3 3 3 3 3 3 2 3 3 3 3 3 3 3 3 3 3
7 7 6 6 6 7 7 8 9 8 7 7 6 6 7 7 7 7 7 7 6 5 5 4 5 5 5 5 5 4 4 4 4 4 4 4 4 4 4 4 3 4 4 3 4 4 3 3 3 3 3 3 3 3 3 3 3 3 3 3 3 3 3
7 7 7 6 6 6 7 8 9 9 8 7 7 7 6 6 6 6 6 7 7 6 5 4 5 5 5 5 5 4 4 4 4 4 4 4 4 4 4 4 4 4 4 4 4 4 4 4 3 3 3 3 3 3 3 3 3 3 3 3 3 3 3
8 7 7 7 6 6 7 9 9 9 9 8 7 6 6 6 6 6 6 7 8 7 6 5 5 6 5 5 5 5 5 4 4 4 4 4 4 4 4 4 4 4 4 4 4 4 4 4 4 4 3 3 3 3 3 3 3 3 3 3 3 3 3
8 8 8 7 7 7 7 9 10 10 9 7 6 6 6 6 6 6 6 7 8 8 8 6 5 5 6 6 5 5 5 5 4 5 5 5 5 5 4 4 4 4 4 4 4 4 4 4 4 4 4 3 3 3 3 3 3 3 3 3 3 3 3
8 8 8 7 7 8 8 10 11 10 9 8 6 6 6 6 6 5 6 6 7 8 8 7 6 5 5 6 6 5 5 5 5 5 5 5 5 5 4 4 4 4 4 4 4 4 4 4 4 4 4 4 3 3 3 3 3 3 3 3 3 3 3
8 8 9 8 8 9 10 11 11 11 10 8 7 7 6 6 6 5 5 5 6 6 7 7 7 6 5 5 6 5 5 5 5 5 5 5 5 5 5 5 4 4 4 4 4 4 4 4 4 4 4 4 3 3 3 3 3 3 3 3 3 3 3
8 9 9 9 9 10 11 13 13 13 11 9 7 7 6 6 6 5 4 4 5 5 5 6 6 6 6 5 6 6 5 5 5 5 5 5 5 5 5 5 5 4 5 4 4 4 4 4 4 4 4 4 4 3 3 3 3 3 3 3 3 3 3
8 9 9 9 10 12 13 14 14 12 11 10 8 8 7 7 7 6 5 5 5 5 6 6 6 6 6 6 6 6 6 6 5 6 6 5 5 5 5 5 5 4 4 4 4 4 4 4 4 4 4 4 4 4 4 4 3 3 3 3 3 3 3
9 9 9 10 11 12 14 15 15 14 13 12 11 10 9 9 9 9 8 7 7 7 7 7 7 7 7 6 6 6 6 6 6 6 6 6 5 5 5 5 5 5 4 5 4 4 4 4 4 4 4 4 4 4 4 3 3 3 3 3 3 3 3
9 9 10 11 13 14 16 18 19 19 18 17 15 13 10 10 10 10 9 8 7 7 8 7 7 7 7 7 7 6 6 7 6 6 6 6 6 5 5 5 5 5 4 4 4 4 4 4 4 4 4 4 4 4 4 4 4 3 3 3 3 3 3
8 9 10 12 15 17 19 20 21 21 21 19 17 15 12 10 11 11 9 8 7 7 8 8 7 7 7 7 7 7 7 7 7 6 6 6 6 5 5 5 5 5 5 4 4 4 4 4 4 4 4 4 4 4 4 4 4 3 3 3 3 3 3
9 9 10 13 15 17 19 20 21 21 20 19 18 16 14 12 11 11 10 9 7 7 8 8 8 8 8 7 7 7 7 7 7 7 6 6 6 5 5 5 5 5 5 4 4 5 4 4 4 4 4 4 4 4 4 4 4 4 4 3 3 3 3
10 10 11 13 15 17 18 19 20 20 20 19 19 18 16 14 12 12 11 10 9 7 7 8 8 8 8 8 7 7 7 7 7 7 6 6 6 6 5 5 5 5 5 5 5 5 4 4 4 4 4 4 4 4 4 4 4 4 4 4 4 3 3
10 12 14 15 16 17 18 18 18 18 18 18 18 18 17 15 13 11 10 10 9 8 8 8 8 8 8 8 8 7 7 7 7 7 7 6 6 6 5 5 5 5 5 5 5 5 5 5 5 4 4 4 4 4 4 4 4 4 4 4 4 4 3
10 11 14 16 16 16 16 16 16 16 16 16 16 16 15 14 13 11 9 9 8 8 8 8 8 8 8 8 8 8 7 7 7 7 7 6 6 6 6 5 5 5 5 5 5 5 5 5 5 5 4 4 4 4 4 4 4 4 4 4 4 4 4

ECMWFFLT1_250_rhum_105.txt.gz
RH
9 9 8 7 6 6 5 5 4 4 4 4 4 4 4 4 4 4 3 3 3 3 3 3 3 3 3 3 3 3 3 2 3 3 2 3 3 3 3 3 3 3 3 5 5 5 5 5 5 5 6 6 6 6 5 5 5 5 5 5 5 6 6
9 8 7 6 6 5 5 4 4 4 4 4 4 4 4 4 4 4 4 4 3 3 3 3 3 3 3 3 3 3 3 2 3 3 2 3 3 3 3 3 3 3 3 4 5 5 5 5 5 5 5 5 6 6 5 5 5 4 5 5 5 5 5
8 7 6 6 5 5 5 4 4 4 4 4 4 4 4 4 4 4 4 4 4 4 4 3 3 3 3 3 3 3 3 3 3 2 2 3 3 3 3 3 3 3 3 3 4 5 5 4 5 5 5 5 5 5 5 5 5 4 4 4 4 4 4
7 6 6 5 5 5 5 4 5 4 4 4 4 4 5 4 4 4 4 4 4 4 4 3 3 3 3 3 3 3 3 3 3 3 3 3 3 3 3 3 3 2 3 3 4 4 4 4 4 5 5 4 4 4 5 5 5 5 5 4 4 4 3
7 6 6 6 5 5 5 5 5 5 5 5 5 5 5 4 4 4 4 4 4 4 4 4 3 3 3 3 3 3 3 3 3 3 3 3 3 3 3 3 3 3 3 3 4 4 4 4 4 4 4 4 4 4 4 4 4 4 5 4 4 4 3
6 6 6 6 6 6 5 5 5 5 5 5 5 5 4 4 4 4 4 4 4 4 4 4 4 3 3 3 3 3 3 3 3 3 3 3 3 3 3 3 3 3 3 4 4 4 5 4 4 4 4 4 4 4 4 4 4 3 4 4 4 4 4
6 6 6 6 6 6 5 5 5 5 5 5 5 5 5 5 4 4 4 4 4 4 4 4 4 4 3 4 3 3 3 3 3 3 3 3 3 3 3 3 3 4 3 4 4 4 4 4 4 3 4 4 4 4 4 4 4 3 3 3 3 4 4
6 6 6 6 6 6 6 6 5 5 5 5 5 5 5 5 5 5 4 4 4 4 4 4 4 4 3 4 3 3 3 3 3 3 3 3 4 3 3 3 3 3 3 3 3 4 4 4 3 3 4 4 4 3 3 3 3 3 3 3 3 3 3
7 6 6 7 6 6 6 6 6 6 6 6 5 5 5 5 5 5 4 4 4 4 4 4 4 4 3 3 3 3 3 3 3 3 3 3 3 3 3 3 3 3 3 3 3 3 3 3 3 3 3 4 4 3 3 3 3 3 3 3 3 3 3
7 6 6 7 6 6 6 6 6 6 6 6 5 5 6 5 5 5 4 4 4 4 4 4 4 4 4 3 4 3 3 4 3 3 4 4 4 3 3 3 3 3 3 3 3 3 3 3 3 3 3 4 4 3 3 3 3 3 3 3 3 3 3
7 6 6 7 7 6 6 6 6 6 6 6 5 5 6 6 5 5 4 4 5 4 4 4 4 4 4 4 4 4 4 4 4 4 4 4 4 3 3 3 3 3 3 3 3 3 3 3 3 3 3 3 4 3 3 3 3 3 3 3 3 3 3
7 6 6 7 7 6 6 6 6 6 6 6 6 6 6 6 5 5 5 5 5 4 4 4 4 4 4 4 4 4 4 4 4 4 4 4 4 3 3 3 3 3 3 3 3 3 4 4 3 3 3 3 3 3 3 3 3 3 3 3 3 3 3
7 7 6 7 7 7 6 6 6 6 6 6 6 6 6 6 6 5 5 5 5 5 5 4 4 4 4 4 4 4 4 4 4 4 4 3 4 3 3 3 3 3 3 3 3 3 3 3 3 3 3 3 3 3 2 2 3 3 3 3 3 3 3
7 7 6 7 7 7 6 6 6 6 6 6 6 6 7 6 6 5 5 5 5 5 5 5 5 5 5 5 4 4 4 5 4 4 4 3 3 3 3 3 3 3 3 3 3 3 3 3 3 3 3 3 3 3 3 2 2 2 3 2 3 3 3
7 7 6 7 7 7 7 6 5 6 6 6 6 7 7 7 6 6 5 5 6 5 5 5 5 5 5 5 5 5 5 5 4 4 4 3 3 3 3 3 3 3 3 3 3 3 3 3 3 3 3 3 3 3 3 3 3 3 3 2 3 3 3
8 7 6 7 7 7 6 6 6 6 6 6 6 7 7 7 6 6 6 6 6 5 5 5 5 6 6 5 5 5 5 5 5 4 4 4 3 3 3 3 3 3 3 3 3 4 4 3 3 3 3 3 3 3 3 3 3 3 3 3 3 3 3
8 7 6 6 6 6 6 6 6 6 6 6 7 7 8 7 7 6 7 7 6 6 5 5 5 5 6 5 5 5 5 5 5 4 4 4 4 3 3 3 3 3 3 3 3 3 4 4 4 3 3 3 3 3 3 3 3 3 3 3 3 3 3
8 7 6 6 6 6 6 6 6 6 7 7 7 7 8 8 7 7 8 8 7 6 6 5 5 5 5 5 5 5 5 5 5 5 5 4 4 4 3 3 3 3 3 3 3 3 4 4 4 3 3 3 3 3 3 3 3 3 3 3 3 3 3
8 8 6 6 6 6 6 6 6 6 7 7 7 7 8 8 8 8 10 10 8 7 6 6 5 5 5 5 5 5 6 5 5 5 5 5 5 4 4 3 3 3 3 4 4 4 4 4 4 4 3 3 3 2 2 3 3 3 3 3 3 3 3
8 8 6 6 6 6 6 6 6 6 7 7 7 7 8 9 9 10 12 12 10 8 7 6 5 5 5 5 5 5 6 6 5 5 5 5 5 4 4 4 3 3 4 4 4 4 4 4 4 4 3 3 3 3 2 3 3 3 3 3 3 3 3
8 8 6 5 6 6 6 6 7 6 7 7 7 7 8 9 9 11 14 14 11 9 9 7 6 6 5 5 5 5 6 6 5 5 5 5 5 5 4 4 4 4 4 4 4 4 4 4 4 3 4 3 3 3 3 2 3 3 3 3 3 3 3
8 7 6 6 6 6 6 6 7 7 7 7 7 7 7 9 10 13 17 17 13 10 10 9 7 6 6 5 5 5 5 6 6 5 5 5 5 5 5 4 4 4 4 4 4 4 4 4 4 3 3 3 3 3 3 2 3 3 3 3 3 3 3
8 7 6 6 6 6 6 6 7 7 7 7 8 7 8 9 11 15 18 18 15 12 12 11 9 8 6 6 5 5 5 6 6 5 5 5 5 5 5 5 4 4 4 4 4 4 4 4 4 4 3 3 3 3 3 3 3 2 3 3 3 3 3
8 7 7 6 6 6 6 6 7 7 7 8 8 8 8 9 11 15 18 19 17 15 15 13 11 9 7 6 6 5 5 6 6 6 5 5 6 5 5 5 4 4 4 4 4 4 4 4 4 4 4 3 3 3 3 3 3 2 3 3 3 4 3
8 7 7 6 6 6 6 6 7 7 8 8 8 9 9 10 11 14 17 18 18 17 16 14 12 11 9 8 7 7 6 6 6 7 6 6 6 6 5 5 5 4 4 4 4 4 4 4 4 4 4 4 3 3 3 3 3 3 3 3 3 4 4
8 7 7 6 6 6 6 6 7 7 8 9 10 10 11 11 12 14 16 16 16 15 15 14 13 13 12 10 8 8 7 7 6 6 7 6 6 6 5 5 5 5 4 4 4 4 4 4 4 4 4 4 4 3 4 3 3 3 3 3 3 3 4
8 7 7 6 6 6 6 6 7 8 9 11 11 12 13 13 14 15 15 15 15 15 14 12 12 13 12 10 9 8 8 8 7 6 7 7 6 6 5 5 5 5 5 5 4 4 4 4 4 4 4 4 4 4 4 3 3 3 3 3 3 3 4
8 7 7 6 6 7 6 7 8 9 10 12 13 14 14 14 14 15 15 14 14 14 13 11 11 11 10 9 8 7 7 8 8 8 7 7 7 6 6 5 5 5 5 5 5 5 5 4 4 4 4 4 4 4 4 4 3 3 3 3 3 4 3
8 7 7 7 7 7 7 8 9 10 12 14 15 15 15 14 14 15 15 13 12 12 10 8 8 7 7 6 6 5 6 6 7 7 7 6 6 6 6 5 5 5 5 5 5 5 5 5 5 5 4 4 4 4 4 4 3 3 3 3 3 4 3
8 7 7 7 7 8 9 9 10 12 14 16 16 16 15 14 14 14 13 11 10 9 8 7 6 6 6 6 5 5 5 6 6 7 7 6 6 6 5 5 5 5 5 6 5 5 5 5 5 5 4 4 4 4 4 4 4 3 4 3 3 4 3
9 8 8 9 9 9 10 11 12 13 15 16 17 16 15 13 13 14 13 11 11 10 9 8 8 7 7 7 6 6 6 6 6 7 7 7 7 6 6 5 6 6 5 5 6 5 5 5 5 5 5 4 5 5 4 4 4 4 4 4 3 3 4
9 10 10 11 12 12 12 13 14 14 14 15 15 15 14 12 12 14 15 14 13 12 11 9 8 8 8 8 7 7 6 6 7 7 8 8 7 7 6 5 5 6 6 6 6 6 5 5 5 5 5 5 4 5 4 4 4 4 4 4 4 3 3
10 12 13 13 14 15 14 14 14 14 14 14 15 15 15 14 13 14 16 16 15 14 12 11 9 9 9 8 8 7 7 6 7 7 7 8 7 7 7 6 5 6 6 6 6 6 5 6 5 5 5 5 4 5 5 4 4 4 4 4 4 4 4
11 13 16 16 16 16 16 15 14 14 14 15 15 16 17 16 15 15 15 16 16 15 13 11 10 9 9 9 8 8 7 7 7 7 7 8 8 7 7 6 6 6 6 6 6 6 5 5 5 5 5 5 4 4 4 4 4 4 4 4 4 4 4
11 13 15 16 17 16 16 16 16 16 16 16 17 19 20 19 18 18 17 16 17 16 14 12 11 10 9 9 8 8 8 7 8 8 8 8 8 7 7 7 6 6 6 6 6 6 6 5 5 5 5 5 5 5 4 4 4 4 4 4 4 4 4
12 13 15 15 15 15 15 16 17 18 18 19 20 21 21 21 20 19 17 17 17 17 15 14 12 11 10 9 8 8 7 7 8 8 8 8 8 7 7 7 6 6 6 6 6 6 6 6 5 5 5 5 5 5 4 4 4 4 4 4 4 4 4

ECMWFFLT1_250_rhum_108.txt.gz
RH
27 22 18 14 10 8 8 9 9 8 8 7 7 7 7 7 6 6 5 4 4 3 3 3 3 3 3 3 3 2 3 2 2 2 2 2 2 2 2 2 2 3 4 4 5 4 4 4 4 4 4 4 4 4 4 4 4 4 4 4 4 4 4
25 21 16 12 9 9 9 9 9 8 8 7 7 7 7 6 6 5 5 4 4 4 3 3 3 3 3 3 3 3 3 3 2 3 2 2 2 2 2 2 2 3 3 4 4 4 4 4 4 4 4 4 4 4 4 4 4 4 4 3 3 4 4
23 18 14 10 9 9 9 9 9 8 8 7 7 7 6 6 6 5 5 4 4 3 3 3 3 3 3 3 3 3 3 3 3 3 3 3 2 3 2 2 2 2 3 3 4 4 3 3 4 4 3 4 4 3 3 4 4 4 4 3 3 3 3
20 15 12 10 9 10 10 9 9 8 8 8 7 7 6 6 5 5 5 4 4 3 3 3 3 3 3 3 3 3 3 3 3 3 3 3 3 3 3 3 3 3 3 3 4 4 3 3 3 3 3 3 3 3 3 3 3 3 3 3 3 3 3
16 12 10 9 9 10 10 9 9 9 8 8 7 6 6 6 5 5 5 4 4 4 3 3 3 3 3 3 4 4 3 3 3 3 3 3 3 3 3 3 3 3 3 3 4 4 3 3 3 3 3 3 3 3 3 3 3 3 3 3 3 3 3
13 10 10 10 10 10 10 9 9 8 8 7 6 6 6 6 5 5 5 4 4 4 3 3 3 3 3 4 4 4 3 3 3 3 3 3 3 3 3 3 3 3 3 3 4 4 4 3 3 3 3 3 3 3 2 2 2 2 2 2 2 2 2
12 11 10 10 10 10 10 9 9 8 8 7 6 6 6 5 5 5 5 5 4 4 4 3 3 3 4 4 4 4 3 3 3 3 3 3 3 3 3 3 3 3 3 3 3 3 3 3 3 3 3 3 3 3 3 2 2 2 2 2 2 2 2
12 11 11 11 10 10 10 10 9 8 7 6 6 6 6 6 5 5 5 5 4 4 4 3 3 3 4 4 4 4 4 3 4 4 4 4 3 3 3 3 3 3 3 3 3 3 3 3 3 3 3 4 3 3 3 2 2 2 2 2 2 2 2
12 11 11 11 10 11 10 10 9 8 6 6 5 5 6 6 5 6 6 5 5 4 3 3 3 3 4 4 4 4 4 4 4 4 4 4 3 4 4 3 3 3 3 3 3 3 3 3 3 3 3 3 3 3 3 3 2 3 2 2 2 2 2
12 11 11 11 11 11 11 10 8 7 6 5 5 5 6 6 6 6 6 5 5 4 3 3 3 4 4 4 4 4 4 4 4 4 4 4 4 4 4 3 3 3 3 3 3 3 3 3 3 3 3 3 3 3 3 3 2 3 3 3 3 2 2
12 12 11 11 11 11 11 9 7 6 5 5 5 5 6 6 7 6 6 5 5 4 4 3 4 4 4 4 4 4 4 4 4 4 4 4 4 4 4 4 3 3 3 3 3 3 3 3 3 3 3 3 3 3 3 2 3 2 2 3 3 3 2
12 12 11 11 11 11 10 8 6 5 5 5 5 5 5 6 7 7 6 5 5 4 4 4 4 4 4 4 4 4 4 4 4 5 5 5 5 4 4 4 3 3 3 3 3 3 3 3 3 3 3 3 3 3 3 3 3 3 3 2 2 3 3
12 12 12 12 11 11 9 7 6 5 5 5 5 5 6 6 6 7 6 5 5 4 4 4 4 5 4 4 4 4 4 5 5 5 5 5 5 5 4 4 4 3 3 3 3 4 3 3 3 3 3 3 3 3 3 3 3 3 3 2 2 2 3
12 12 12 12 11 9 8 6 6 5 5 5 6 5 6 6 6 6 6 5 5 4 4 4 4 5 4 4 4 4 4 5 5 5 5 5 5 5 4 4 4 3 3 4 4 4 4 3 3 3 3 3 3 3 3 3 3 3 3 3 3 3 3
13 13 13 12 10 8 7 6 6 5 5 5 6 6 6 6 6 6 6 6 5 4 4 5 4 5 5 4 5 5 5 5 5 5 5 5 5 5 4 4 3 3 3 4 4 4 4 4 3 3 3 3 3 3 3 3 3 3 3 2 3 3 3
13 13 13 11 9 7 7 7 6 5 5 5 5 6 6 6 6 6 6 5 5 5 4 5 5 5 5 5 5 5 5 5 5 6 6 6 5 5 4 4 3 3 3 3 3 4 4 4 4 3 3 3 3 2 3 3 3 3 3 2 3 3 3
14 14 12 9 8 7 7 7 6 5 5 5 6 6 6 7 6 6 6 5 5 5 5 5 5 5 6 6 5 6 6 5 6 7 7 7 6 5 5 4 4 3 3 3 3 4 4 4 4 4 3 3 3 2 2 3 3 3 3 3 3 3 3
14 13 11 9 8 7 7 7 6 5 5 5 6 6 6 7 6 6 6 5 5 5 5 5 5 5 6 6 6 6 7 6 7 8 8 8 8 7 5 5 4 3 3 3 3 4 4 4 4 4 3 3 3 3 3 3 3 3 3 3 3 3 3
14 12 10 8 8 7 6 7 6 5 5 5 6 6 6 7 7 6 6 6 5 5 5 5 6 6 6 7 7 8 8 7 7 8 8 8 8 8 7 6 5 4 3 3 3 3 4 4 4 3 3 3 3 3 3 3 3 3 3 3 3 3 3
13 11 10 9 8 7 6 6 6 6 6 6 6 6 6 7 6 6 6 6 5 5 5 6 6 6 7 8 9 9 9 9 8 8 8 8 8 8 7 6 5 4 4 4 3 3 4 4 4 4 4 3 3 3 3 3 3 3 3 3 3 3 3
11 10 10 9 7 6 6 6 6 6 6 6 6 6 6 6 6 6 6 6 6 6 6 6 7 7 8 9 10 11 11 10 9 8 8 8 7 8 7 7 6 4 4 4 4 4 4 3 4 4 4 4 3 3 3 3 3 3 3 3 3 3 3
11 10 10 9 7 6 6 6 6 6 6 6 6 6 6 6 7 7 6 6 6 6 7 8 8 9 10 10 11 11 11 11 9 8 8 7 7 7 7 7 6 5 4 4 4 4 4 4 4 4 4 4 4 3 3 3 3 3 3 3 3 3 3
11 10 10 9 7 5 5 6 6 7 7 7 7 6 6 7 7 7 7 8 8 8 8 10 10 11 12 11 11 11 11 11 9 8 7 6 6 7 7 7 7 6 5 5 4 4 4 4 4 4 4 4 4 3 3 3 3 3 3 3 3 3 3
11 10 9 8 6 5 5 6 6 7 7 8 8 7 7 8 8 9 9 9 10 10 11 12 13 14 13 12 12 12 11 10 9 8 7 6 6 6 6 6 6 6 5 5 5 5 4 4 4 5 4 4 4 4 4 3 3 3 3 3 3 4 3
11 11 9 8 6 6 6 6 6 8 9 10 10 9 9 9 10 11 11 11 12 12 14 15 16 15 14 12 13 13 11 9 9 8 7 7 6 6 6 5 5 5 5 5 5 5 4 4 4 5 4 4 4 4 4 4 3 3 3 3 3 4 4
11 10 9 7 6 6 6 6 7 9 11 12 12 12 11 11 11 11 12 13 13 14 16 17 17 15 14 13 13 13 12 10 10 9 8 8 7 6 6 5 5 5 5 5 5 5 5 5 5 5 5 4 4 4 4 4 4 3 3 3 3 4 4
11 10 8 7 7 6 6 6 7 11 13 14 14 13 13 12 12 11 12 12 12 15 17 18 17 15 14 15 15 14 14 14 13 12 11 10 9 8 7 6 5 5 5 5 6 5 5 5 5 5 5 4 4 4 4 4 4 4 3 4 3 3 4
11 10 8 8 7 7 7 7 9 12 14 15 15 14 13 13 13 12 11 10 11 14 15 16 16 16 17 17 17 16 16 16 16 16 15 14 12 11 10 9 7 6 5 5 6 6 5 5 5 5 5 5 4 4 4 4 4 4 3 4 4 3 3
11 10 8 8 7 7 7 9 10 13 16 16 16 15 13 13 13 12 11 10 11 13 14 15 16 16 17 17 16 16 16 17 18 18 17 16 15 13 11 10 9 8 7 6 6 6 5 5 6 5 5 5 4 4 5 4 4 4 4 4 4 4 3
10 10 9 8 8 7 8 10 11 13 15 15 16 15 14 13 13 13 11 10 11 13 14 14 15 15 16 17 17 17 18 18 19 18 17 15 14 12 11 10 8 8 7 6 6 7 6 5 6 6 5 5 5 5 5 5 4 4 4 4 4 4 4
10 10 10 9 9 10 10 12 13 13 13 13 13 13 13 13 15 16 14 10 11 13 14 13 14 15 15 17 17 17 16 16 15 14 13 11 10 10 9 9 7 7 6 6 6 7 6 6 6 6 5 6 5 5 5 5 5 4 4 4 4 4 4
9 10 10 9 10 12 14 15 15 14 14 13 12 12 12 12 14 17 17 13 11 13 13 13 13 13 13 13 13 12 12 12 11 11 10 9 8 8 8 8 7 7 6 6 5 6 6 6 6 5 6 6 5 5 5 5 5 5 4 4 4 4 4
8 9 9 10 12 14 16 17 17 16 14 13 13 13 13 12 13 16 18 16 14 13 13 12 12 11 11 11 10 10 10 10 9 9 9 8 7 7 7 7 7 6 6 6 6 6 6 6 6 6 5 5 6 6 5 5 5 5 5 4 4 4 4
7 8 9 11 14 16 17 18 18 18 17 15 14 14 13 13 12 13 15 15 14 13 13 12 12 11 11 11 10 10 9 9 9 8 8 8 7 7 7 6 6 6 6 6 6 6 6 6 6 6 5 6 6 6 5 5 5 4 5 5 4 4 4
7 7 8 12 15 17 17 17 17 18 18 18 17 16 15 13 12 11 12 12 12 12 12 11 11 11 11 10 10 10 10 9 9 9 8 8 8 7 7 7 6 6 6 6 6 6 6 6 6 6 6 6 6 6 5 5 5 5 4 4 4 4 4
8 8 9 12 15 17 16 15 16 17 17 18 18 18 16 14 12 11 11 11 11 12 12 12 11 11 11 10 10 10 10 9 9 9 9 9 8 8 8 7 7 6 6 6 6 6 6 6 6 6 6 6 6 6 6 5 5 5 5 4 5 4 4

ECMWFFLT1_250_rhum_114.txt.gz
RH
38 36 36 34 32 31 30 29 28 27 25 24 23 23 23 23 22 22 22 21 20 18 17 16 14 13 10 8 7 7 6 6 6 5 5 5 5 5 5 5 4 4 5 5 5 5 4 5 4 4 4 3 4 3 3 3 3 3 3 3 3 3 3
39 38 36 34 33 32 32 31 29 27 24 23 23 23 22 22 22 22 22 21 20 18 17 15 14 12 10 8 7 7 6 6 6 5 5 5 5 5 5 5 4 5 5 5 6 5 5 5 4 4 4 3 3 3 3 3 3 3 3 3 3 3 3
41 38 35 33 34 34 34 33 30 27 25 23 23 22 22 22 22 22 21 20 19 18 16 14 13 11 9 8 7 7 7 6 5 5 5 5 5 5 5 5 5 5 5 6 6 6 5 5 5 4 4 3 3 3 3 3 3 3 3 3 3 3 3
39 37 35 35 35 35 35 34 31 29 27 24 22 21 22 22 22 21 21 20 19 17 15 13 11 10 8 7 7 7 6 6 5 5 5 5 5 5 5 6 6 6 5 6 6 6 5 5 4 4 3 3 3 3 3 3 3 3 3 3 3 3 3
37 36 36 37 37 37 36 34 33 31 28 24 22 21 21 21 21 21 20 19 17 15 13 11 9 8 8 7 7 7 6 6 6 5 5 6 6 6 6 6 5 5 5 5 5 5 4 4 3 3 3 3 3 3 2 2 2 2 2 2 2 2 3
35 35 36 37 37 37 36 35 34 31 27 24 21 21 21 21 21 20 19 18 16 14 11 10 9 8 8 7 7 6 6 6 6 6 6 6 6 6 5 5 5 4 4 4 4 4 4 4 3 3 3 3 2 2 2 2 2 2 2 2 2 2 3
35 36 36 36 36 36 35 35 34 30 26 22 20 20 21 21 20 19 18 17 14 12 10 9 9 8 8 7 7 7 7 6 6 6 6 6 5 5 4 4 4 4 4 4 4 4 4 4 3 3 3 3 2 2 2 2 2 2 2 3 3 3 3
36 36 35 34 34 34 34 33 31 28 23 21 20 20 20 20 19 18 17 15 13 11 10 9 9 8 8 8 7 7 7 6 6 6 5 5 4 4 4 4 4 4 4 4 4 4 4 4 4 3 3 3 3 2 2 2 2 3 3 3 3 3 3
35 34 33 32 32 32 32 31 29 25 21 19 19 19 19 19 18 17 15 13 11 10 10 9 9 9 9 8 8 7 6 6 5 5 5 5 5 5 5 5 5 5 4 4 4 5 4 4 4 3 3 3 3 3 3 3 3 3 3 3 3 3 3
34 33 32 30 30 30 30 29 27 23 20 19 19 19 19 18 17 16 14 12 11 10 10 10 10 9 9 9 8 7 6 5 5 5 5 5 5 5 5 5 5 5 4 4 4 5 5 4 4 3 3 3 3 3 3 3 4 3 3 3 3 3 3
32 31 30 30 29 29 29 28 25 21 19 19 18 18 18 18 16 14 12 11 10 10 10 10 10 10 9 9 7 6 5 5 5 5 6 6 6 5 4 4 5 4 5 5 5 5 5 4 4 3 3 3 3 3 3 3 4 4 4 4 3 4 3
31 30 29 29 28 28 28 27 23 20 19 18 18 17 16 15 14 13 12 12 11 11 11 10 11 10 9 7 6 5 5 5 5 5 5 6 6 5 4 4 5 4 5 5 4 5 5 4 4 3 3 4 3 4 4 3 4 4 4 4 4 4 4
30 30 29 28 28 28 27 25 22 20 19 19 18 17 14 12 12 11 11 12 12 12 12 12 12 11 9 7 6 5 5 5 5 5 5 6 6 6 5 4 5 4 4 5 4 4 4 4 4 4 4 4 4 4 4 4 4 4 4 4 4 4 4
29 29 28 28 27 27 25 24 21 20 19 19 18 16 13 11 10 10 11 11 11 12 12 12 11 9 7 7 7 7 6 5 5 5 5 5 6 6 5 4 4 4 4 4 4 4 4 4 4 4 4 4 4 4 5 5 5 5 5 5 5 4 4
29 28 27 27 26 25 24 23 21 20 20 19 18 14 11 10 10 11 11 11 11 12 12 11 9 7 6 7 7 7 6 5 5 5 5 5 6 6 6 5 4 4 4 4 4 4 4 4 4 4 4 4 5 5 5 5 5 5 5 5 5 5 5
27 26 26 25 24 23 23 22 21 21 20 18 15 12 10 10 11 11 11 12 12 12 11 9 7 6 7 7 7 7 7 6 6 6 5 6 6 6 6 5 4 4 4 5 5 5 5 5 5 5 5 5 5 5 5 6 6 6 6 6 6 6 6
26 25 24 23 23 23 23 22 21 19 18 16 12 11 10 10 11 12 12 13 13 12 10 7 6 6 7 8 7 7 7 6 6 7 7 7 7 8 8 6 5 5 6 6 6 6 6 5 5 5 5 5 5 5 6 6 7 6 6 6 7 7 6
24 23 23 22 22 22 22 22 20 17 16 13 11 10 10 10 11 12 13 13 13 11 8 6 6 6 7 8 8 7 7 6 6 8 9 9 9 9 9 8 6 7 7 7 7 7 6 6 6 5 5 5 5 5 6 7 7 7 6 7 7 7 7
23 22 23 22 22 22 21 20 18 15 13 12 11 10 10 10 12 13 13 13 12 9 8 6 6 7 7 7 8 7 7 7 7 9 11 11 11 10 9 9 9 9 9 8 8 8 8 7 7 7 6 6 6 6 7 7 7 7 7 7 7 8 8
22 22 23 22 21 21 19 18 16 14 12 11 11 10 10 11 13 13 13 13 11 9 8 7 7 7 6 7 8 8 8 8 8 10 12 12 11 10 9 9 10 10 9 9 10 10 10 9 8 7 7 7 7 7 7 8 8 8 8 8 9 9 8
22 22 22 22 20 19 17 15 14 13 12 11 11 11 11 12 13 13 12 12 10 9 8 7 7 7 6 7 8 8 10 11 10 11 12 12 12 11 10 9 9 9 9 10 10 11 11 10 8 8 9 9 10 10 10 11 12 12 12 13 13 13 11
22 22 22 20 18 16 15 14 13 12 12 11 11 12 13 13 13 12 11 11 10 9 8 8 7 7 7 7 8 9 11 13 13 13 13 13 13 12 9 8 9 10 10 10 10 10 10 9 9 10 11 12 12 13 13 14 15 15 15 16 17 16 15
21 20 19 17 15 15 14 13 12 12 12 12 12 13 13 13 12 11 10 10 10 9 8 8 7 7 7 7 8 10 12 14 14 14 13 13 13 12 10 9 10 10 10 10 10 10 9 10 10 11 12 12 13 14 15 16 17 16 16 16 16 16 14
19 17 16 15 15 15 15 13 12 12 12 13 14 14 13 12 12 10 9 10 10 10 9 8 7 7 7 8 9 11 13 14 15 16 14 13 13 13 11 10 11 11 11 11 11 10 10 10 10 11 11 11 11 13 15 16 17 17 17 17 17 16 14
15 14 14 14 15 16 14 13 13 13 13 14 14 14 13 12 11 10 9 9 9 9 9 8 8 8 9 10 11 11 12 13 14 15 16 14 14 14 13 12 12 12 12 12 11 11 11 10 10 10 10 10 10 10 12 12 13 15 15 15 16 16 14
13 13 14 15 16 15 14 13 14 14 14 14 14 13 12 12 11 10 9 9 9 9 9 8 9 10 12 13 13 12 12 13 13 14 15 15 15 15 14 14 14 13 13 13 12 12 12 11 10 9 9 9 9 9 9 9 10 11 11 11 11 12 11
13 13 14 15 15 14 14 16 17 16 14 14 12 12 12 12 11 10 9 9 8 8 8 8 9 12 14 14 14 13 12 13 14 14 15 16 16 16 15 15 15 14 14 14 14 14 13 11 10 10 9 9 9 9 9 9 9 10 9 9 9 9 8
13 13 13 14 14 14 16 18 18 16 14 12 11 11 11 11 10 10 9 8 8 9 9 9 11 14 15 15 14 13 13 13 14 15 15 15 15 15 15 15 15 15 14 14 14 14 13 12 11 10 10 10 10 9 9 9 10 11 11 10 9 9 8
12 12 13 13 14 15 17 20 20 16 13 11 10 10 11 10 9 9 9 8 9 10 11 13 14 16 17 16 16 15 13 12 13 13 13 13 13 13 13 13 13 14 14 14 14 13 13 12 11 11 10 10 10 10 10 10 11 12 12 12 11 10 8
12 12 13 14 16 17 18 20 19 15 11 10 10 10 11 10 9 8 8 9 11 12 14 16 17 18 19 19 19 17 14 12 11 10 10 11 11 12 12 12 13 13 13 13 14 13 13 12 12 11 11 11 11 11 11 11 12 13 14 14 14 12 10
12 12 13 15 17 18 19 19 17 13 10 9 10 10 10 9 8 8 8 10 12 13 14 15 16 17 18 18 18 17 14 13 11 10 10 10 11 11 12 12 12 13 13 13 13 14 13 13 13 12 12 11 11 11 11 11 12 12 13 14 14 12 10
12 13 14 15 15 16 17 18 17 14 11 10 9 10 9 9 8 7 9 12 15 15 14 13 13 13 13 13 14 13 13 13 13 13 12 11 11 11 11 12 13 13 13 13 13 14 14 13 13 12 12 11 11 11 10 10 10 10 10 10 10 9 8
13 13 14 14 13 13 14 14 13 13 12 11 10 9 9 8 8 9 11 13 15 16 15 14 13 11 10 10 10 10 12 12 13 14 14 13 12 11 10 11 11 12 12 12 12 13 13 12 12 11 11 10 10 9 9 9 8 8 8 8 8 7 7
12 11 11 11 11 11 11 11 11 10 10 10 10 9 9 10 11 12 13 14 15 15 15 13 12 10 10 10 10 10 10 11 11 12 13 13 13 12 11 11 11 11 11 11 11 11 11 11 10 10 9 9 9 8 8 8 8 8 8 8 7 6 6
12 10 8 8 8 9 10 9 9 9 9 9 9 9 11 13 14 15 15 14 14 14 12 11 10 10 9 10 10 10 10 10 10 11 11 12 12 12 12 12 12 12 12 12 11 11 11 11 10 10 9 9 8 8 8 8 8 8 8 8 7 7 5
12 10 8 8 8 9 9 8 8 8 8 8 9 11 13 16 17 17 16 14 13 12 11 10 10 10 10 10 9 10 10 10 11 11 11 11 12 12 12 12 12 13 13 13 13 13 12 12 12 11 11 10 10 9 9 9 8 9 9 8 8 7 6

ECMWFFLT1_250_rhum_120.txt.gz
RH
72 71 71 70 69 68 66 63 58 52 46 41 37 33 31 29 27 27 27 27 26 27 27 27 27 28 28 28 28 27 26 24 21 18 16 15 13 12 12 11 11 10 11 12 11 9 9 11 11 10 10 10 10 9 9 9 8 8 8 8 8 8 8
76 74 73 73 69 63 56 48 41 36 33 31 30 29 28 27 27 26 26 25 24 25 25 25 27 28 28 28 27 26 23 21 19 17 16 14 13 12 12 11 11 10 11 11 11 9 9 10 11 10 10 10 9 9 9 9 8 8 8 7 7 7 7
80 77 74 68 59 49 41 35 32 31 30 30 29 28 27 27 26 25 24 23 22 22 23 25 27 28 28 26 24 23 21 19 17 15 14 13 12 12 12 11 11 10 11 11 11 10 8 9 10 10 10 9 9 9 8 8 8 8 7 7 7 7 7
82 75 65 54 44 37 34 33 33 32 31 31 29 29 28 27 26 24 23 22 22 23 23 25 26 26 24 22 20 19 18 16 15 13 12 12 11 11 11 11 11 10 10 11 11 11 9 8 9 11 11 10 9 9 8 8 7 7 7 6 6 6 6
76 63 50 43 38 37 37 37 36 35 33 31 30 29 29 28 26 25 23 23 23 23 23 23 22 21 19 18 17 16 16 14 13 12 12 11 10 10 10 10 10 10 10 10 10 11 10 9 9 10 11 11 9 8 8 7 7 6 6 6 6 6 6
60 49 43 42 41 40 40 39 38 36 34 32 31 31 30 28 26 24 23 23 22 21 20 19 18 17 16 16 15 15 14 13 13 12 11 11 11 10 10 10 10 9 9 9 9 10 10 9 9 9 10 11 10 8 8 8 7 7 6 6 5 5 5
48 44 43 43 43 42 41 39 38 36 34 33 31 30 28 26 24 23 22 20 19 18 17 17 16 16 15 15 14 14 14 13 12 12 11 11 11 10 10 10 10 9 9 9 9 10 10 9 8 8 9 10 9 8 8 7 7 7 6 5 4 4 4
46 44 43 43 42 41 39 37 36 35 33 32 30 28 26 24 22 20 19 18 17 17 17 17 17 16 16 15 15 14 13 12 12 11 11 11 11 10 10 9 9 10 10 10 10 10 10 9 8 9 9 9 8 8 7 6 6 6 5 5 4 4 4
45 44 42 41 39 38 37 36 35 34 31 29 27 24 22 20 19 18 17 17 17 17 18 18 17 17 17 16 15 14 13 12 12 11 11 11 10 10 9 9 10 10 10 10 10 10 10 10 9 9 9 8 7 6 6 5 5 5 5 5 5 5 4
44 43 41 39 38 37 36 35 34 31 28 25 22 20 19 18 17 17 17 17 18 18 19 19 18 18 17 16 14 13 12 11 11 11 11 11 10 9 9 10 11 11 11 10 10 10 10 9 9 9 7 6 6 6 5 5 5 5 5 5 5 5 5
42 40 38 37 36 36 34 32 30 27 24 21 18 17 17 17 17 17 17 18 19 20 19 19 19 18 17 16 14 13 12 12 11 11 11 10 10 9 10 11 11 11 11 10 10 9 9 8 8 7 6 6 6 5 5 5 5 5 5 6 6 6 6
39 37 36 35 34 33 30 28 25 22 20 17 16 16 17 17 17 17 18 19 19 20 19 19 18 17 16 15 14 13 13 12 12 11 10 10 10 10 10 10 10 10 9 9 8 7 7 7 7 7 6 6 6 6 6 6 6 6 6 6 7 6 6
35 34 34 33 31 28 25 23 21 19 17 16 16 16 17 17 17 17 18 18 19 19 19 18 17 16 15 14 14 14 13 13 12 11 9 9 9 10 9 9 9 8 8 7 7 7 7 8 7 7 7 6 6 6 7 7 7 6 6 6 6 6 5
33 32 30 28 25 22 21 20 19 17 16 16 16 16 16 17 17 17 17 17 18 18 18 17 16 15 14 15 14 14 14 12 10 9 8 9 9 9 9 9 9 8 7 7 6 7 8 9 8 8 7 7 7 7 7 7 6 5 5 5 5 5 5
29 27 25 22 20 19 18 17 17 17 16 16 15 15 15 15 16 17 17 17 18 18 17 15 14 13 13 14 14 13 11 10 8 8 8 8 9 9 9 9 9 8 7 6 6 7 9 10 10 9 8 8 7 7 6 6 5 4 4 4 5 5 5
24 22 20 18 17 17 17 17 17 16 16 15 14 14 14 14 15 15 16 17 17 17 16 14 13 12 12 12 11 10 9 8 8 8 8 9 9 10 9 10 9 7 6 7 8 8 9 9 9 9 9 8 7 6 5 4 4 5 4 5 5 5 5
20 18 17 17 16 16 17 17 17 16 15 14 13 13 13 13 13 14 14 15 14 13 13 12 12 12 11 11 10 9 9 9 8 8 9 9 10 10 10 10 9 7 7 8 9 9 8 8 8 8 8 8 7 6 5 4 5 5 4 5 5 5 5
17 16 16 16 16 17 17 17 16 15 14 13 12 11 12 12 12 12 12 11 11 11 11 11 12 11 11 11 11 11 11 10 9 9 9 9 10 11 13 12 10 8 9 9 8 8 7 6 6 6 6 7 6 6 5 5 5 5 4 5 6 5 5
16 16 16 16 16 16 16 16 15 13 12 11 10 10 10 10 10 10 10 10 10 10 11 12 12 11 11 11 11 12 11 11 10 9 10 11 12 14 15 14 11 11 12 11 9 6 5 6 6 6 6 6 6 6 5 5 6 5 5 5 5 5 5
15 16 16 16 16 15 15 14 13 11 10 9 9 9 8 9 9 9 10 10 11 12 12 12 12 11 11 11 11 11 11 11 11 11 11 12 13 14 15 13 12 13 14 12 9 7 5 5 6 6 6 7 6 6 5 5 5 6 5 5 6 5 6
15 15 15 15 15 14 12 11 10 10 9 8 8 8 8 8 9 10 11 11 12 12 12 12 12 12 12 12 12 13 13 13 13 11 11 11 12 13 13 12 13 15 14 11 8 6 6 6 6 6 6 6 6 6 6 6 5 5 6 6 7 7 7
14 14 14 13 13 11 10 10 9 9 9 8 8 8 8 9 10 10 11 11 12 12 12 12 12 13 13 14 15 15 15 14 12 11 10 10 10 10 11 12 14 16 14 10 7 6 7 6 6 6 6 6 6 6 6 6 6 6 7 7 9 10 9
13 13 12 11 11 10 10 9 9 9 9 8 8 9 9 10 10 10 11 11 11 12 12 13 14 15 15 16 16 16 15 13 12 11 9 8 8 8 9 11 13 14 13 10 8 7 7 6 6 6 6 6 6 7 7 8 7 7 8 9 10 10 10
12 11 11 11 10 10 9 9 9 10 9 9 9 10 10 10 10 10 10 10 12 13 14 15 16 16 16 17 16 15 14 12 11 10 8 8 7 7 8 9 10 10 10 9 9 8 7 6 6 5 6 6 6 8 10 11 10 8 8 9 10 11 10
11 10 10 10 10 9 10 10 10 10 10 10 10 10 10 11 10 10 10 11 12 14 15 16 17 17 17 17 15 14 12 10 9 9 8 8 8 8 8 9 9 8 8 9 9 8 7 7 6 6 6 6 7 8 10 13 13 11 10 9 10 11 11
10 10 10 9 10 10 10 10 10 11 11 11 11 11 11 10 10 10 11 12 12 13 13 15 16 17 17 15 13 12 10 9 10 9 9 8 8 7 8 9 8 7 7 8 8 8 8 7 7 8 8 8 8 8 9 12 13 13 12 10 10 11 11
9 9 9 9 10 10 10 11 11 12 11 12 12 11 11 10 10 11 11 12 12 12 12 13 15 15 14 13 11 11 10 10 10 10 9 8 8 7 7 8 8 7 7 7 7 7 9 10 10 11 11 11 10 9 9 11 13 13 12 10 10 11 10
9 9 9 9 10 11 11 12 12 12 12 12 12 12 11 11 11 10 11 11 11 11 11 12 13 12 12 11 11 10 10 10 9 9 8 8 7 7 7 7 7 7 7 8 8 10 11 12 13 14 13 13 12 10 9 10 11 11 10 10 9 10 9
9 9 9 10 11 11 12 13 12 12 12 12 12 12 12 11 11 11 10 10 10 10 10 11 11 12 11 11 10 9 9 8 8 8 8 7 7 7 7 8 9 9 10 11 11 12 13 13 13 13 13 13 12 10 8 8 9 10 10 9 9 9 9
9 10 10 11 12 12 13 13 12 12 12 12 12 13 12 12 12 11 10 9 8 8 9 10 11 11 10 9 8 8 8 7 7 7 8 8 8 9 10 11 11 12 13 13 14 14 13 12 12 12 12 11 10 9 9 8 8 10 10 10 10 10 9
9 10 11 12 13 13 13 13 12 12 12 12 12 12 12 12 12 11 10 10 9 9 9 10 9 9 9 8 8 7 7 7 7 8 9 10 11 12 12 13 13 13 13 14 14 13 12 12 11 10 10 10 9 9 9 8 8 9 10 10 11 10 10
10 11 11 12 12 12 12 12 13 13 13 12 12 11 10 10 10 10 9 9 9 10 11 10 9 8 7 7 7 8 8 9 10 10 11 12 12 12 12 13 13 13 12 12 12 12 12 11 11 10 9 9 9 9 9 10 9 8 9 10 11 11 10
11 11 12 11 11 11 11 12 12 13 13 13 12 11 10 10 10 9 8 8 7 8 8 8 8 8 8 8 9 10 11 12 12 12 12 12 12 12 11 12 11 11 10 10 10 10 11 11 10 10 9 9 9 9 9 10 9 9 8 9 10 11 11
10 10 10 10 10 10 11 11 11 12 11 11 11 10 10 11 11 10 9 7 6 6 6 7 8 9 10 12 12 12 12 12 11 11 11 10 10 10 10 11 11 10 9 9 9 10 10 10 10 10 9 9 9 9 9 9 9 9 9 9 9 10 10
10 9 9 9 10 10 10 10 10 10 9 9 9 10 10 10 10 9 8 7 6 6 7 8 9 10 11 12 13 12 12 11 10 9 9 8 8 9 9 10 11 11 10 10 10 10 10 10 11 10 9 9 9 9 9 8 8 9 9 9 9 9 9
11 11 10 9 9 9 10 9 9 8 9 9 9 9 9 9 8 7 7 7 7 8 9 10 10 10 10 10 10 10 10 10 9 9 9 9 8 8 8 9 10 10 11 11 11 11 11 11 11 11 10 10 9 9 8 8 8 8 8 8 9 9 9

ECMWFFLT1_250_rhum_123.txt.gz
RH
78 78 79 81 83 87 94 98 99 100 99 99 97 95 93 91 87 83 78 74 70 65 57 47 38 31 27 24 23 22 22 22 23 23 23 23 23 23 22 21 20 20 20 19 18 18 19 18 17 16 16 16 15 14 13 12 12 12 11 11 11 11 11
90 89 89 92 95 98 101 102 101 100 98 97 96 95 93 89 84 80 75 70 62 52 42 34 29 26 26 25 24 23 23 22 22 22 22 21 21 21 20 20 19 19 20 20 18 18 19 19 17 16 16 16 15 14 13 12 11 11 11 10 10 10 10
102 103 102 103 104 104 103 102 101 99 98 98 96 93 88 83 79 75 68 58 47 37 31 28 27 27 27 26 25 24 24 24 23 22 21 20 19 19 19 18 18 17 17 17 17 16 17 17 16 15 15 14 13 12 12 12 11 10 10 10 9 9 9
110 112 108 106 105 104 103 102 102 100 96 93 89 85 81 76 70 61 50 40 33 29 28 27 28 28 27 26 26 25 25 24 23 21 19 18 17 17 16 15 14 14 14 14 14 14 14 15 15 14 14 13 13 12 11 11 11 10 9 9 9 9 9
116 116 111 108 105 103 104 102 99 95 90 85 82 77 71 62 51 41 33 30 28 27 27 28 28 28 27 27 26 26 25 23 21 19 17 16 15 14 13 13 12 12 13 13 13 13 13 14 15 15 14 13 13 12 12 11 11 10 9 9 9 9 9
115 116 113 110 108 105 103 98 93 89 85 80 72 62 51 42 35 31 28 27 27 27 27 27 27 27 27 26 26 24 23 20 18 16 15 14 13 12 12 11 12 12 12 13 13 13 13 14 15 15 15 14 13 12 12 11 10 10 10 9 9 9 9
112 116 114 110 106 102 98 95 90 83 74 63 52 42 36 32 30 28 27 27 26 26 26 26 27 27 26 25 23 21 19 17 16 15 14 13 13 12 12 11 12 12 12 12 13 13 14 14 14 15 15 14 13 12 12 11 10 10 10 10 10 9 9
110 110 107 104 101 97 92 86 77 64 52 42 37 34 32 30 29 27 27 26 26 26 26 26 26 25 24 22 20 18 17 16 14 14 13 13 12 12 11 11 11 11 12 12 13 13 13 13 13 14 15 14 13 12 11 11 10 11 12 11 10 10 9
104 104 102 98 92 83 72 61 50 42 37 34 33 31 30 28 27 26 26 26 26 26 25 25 23 22 21 19 18 16 15 15 14 13 13 12 12 11 11 11 11 11 12 12 12 12 12 12 13 14 14 13 12 11 10 10 10 11 12 12 11 11 10
99 94 87 76 65 54 46 40 36 35 33 32 31 29 28 27 26 26 26 25 25 23 22 21 20 19 18 17 16 15 15 14 13 13 12 11 11 11 11 11 11 11 12 12 12 12 12 12 12 13 13 12 12 11 10 10 11 12 13 12 11 12 11
75 65 55 47 41 37 35 34 33 32 31 30 29 27 26 26 25 24 23 22 21 20 19 18 17 17 16 16 15 15 14 13 13 12 12 11 11 11 11 11 11 12 11 11 11 11 12 12 12 12 12 11 11 10 9 10 11 11 11 11 11 12 11
45 40 37 35 34 33 33 32 31 30 29 28 26 25 24 24 22 21 19 18 18 17 17 16 16 16 15 15 15 14 13 13 13 12 11 11 11 11 11 11 11 11 11 10 10 10 10 11 11 11 11 10 10 9 9 9 9 9 9 9 9 10 10
34 33 33 32 31 30 30 29 29 28 26 25 24 22 20 19 18 17 16 16 16 15 15 15 15 15 15 15 14 14 13 13 12 11 10 10 10 10 10 10 10 10 9 9 9 9 10 10 10 9 10 9 8 8 8 8 8 7 7 7 8 9 9
31 30 29 29 29 28 28 27 26 25 23 22 20 18 16 16 15 15 15 15 15 15 15 15 15 15 15 15 14 13 13 12 11 10 9 9 9 9 10 9 9 9 9 9 9 9 9 9 9 9 10 9 9 9 9 8 8 7 7 8 8 9 9
28 28 27 27 27 26 25 24 23 22 20 18 16 15 13 13 14 14 14 14 15 15 15 16 15 15 15 14 14 13 12 10 9 9 9 9 9 9 9 10 10 10 9 9 9 9 9 10 10 10 10 9 9 9 9 8 8 8 8 8 8 9 9
26 26 25 25 24 23 22 20 19 17 16 15 14 13 12 12 13 14 14 15 15 15 15 15 15 14 14 13 13 12 11 10 9 8 9 9 9 9 10 11 12 11 10 10 9 9 10 10 11 10 10 10 9 9 9 8 8 9 9 8 8 10 10
23 23 22 21 19 18 17 16 15 15 14 13 13 12 12 12 13 14 15 16 16 15 15 14 13 13 12 12 12 11 10 9 8 8 9 10 10 11 12 13 13 11 10 9 9 9 9 10 10 10 11 11 11 11 11 10 10 10 9 9 10 11 11
19 18 17 16 15 15 14 14 14 13 13 13 13 12 12 13 13 14 15 15 15 14 14 13 13 12 12 11 11 10 9 9 9 9 10 11 12 12 13 13 12 10 9 9 9 10 10 10 11 11 11 12 12 13 12 11 11 10 9 9 10 12 12
15 15 14 14 13 13 13 13 13 13 13 13 13 13 13 12 13 13 13 13 13 13 13 13 12 12 11 11 10 10 10 10 10 10 11 12 12 12 12 12 10 9 9 10 10 10 10 10 11 11 12 12 12 12 11 10 10 10 10 10 10 11 12
13 13 13 13 13 13 13 13 13 13 13 13 13 13 12 12 12 12 12 11 11 12 12 12 12 11 11 11 11 11 12 12 12 11 11 11 11 12 12 11 10 10 11 11 11 11 11 10 10 10 10 10 10 10 9 8 8 8 9 10 11 11 10
12 13 13 13 13 13 13 14 13 13 13 12 12 12 11 11 11 11 11 11 11 11 11 11 11 11 11 12 12 13 14 14 14 12 11 11 12 12 11 11 11 12 13 12 12 12 12 11 10 9 8 7 7 7 7 6 6 7 8 10 11 11 9
12 13 13 13 14 13 13 13 13 13 12 12 11 11 11 10 10 10 10 10 10 10 10 10 11 11 12 13 13 14 14 14 13 12 11 11 11 11 11 11 12 13 13 13 14 14 14 14 11 8 7 6 6 6 6 6 7 7 8 8 9 10 9
13 13 14 13 13 13 12 12 12 12 12 11 11 10 10 10 10 10 9 10 10 10 11 11 12 13 13 13 13 13 13 13 12 12 11 11 10 11 11 12 12 13 13 14 15 15 16 15 12 9 7 6 6 6 7 8 8 7 7 8 8 9 9
13 13 13 12 12 12 12 12 12 12 11 11 10 10 10 9 9 9 9 9 10 11 12 12 13 13 13 13 13 13 13 12 12 12 11 11 10 10 10 11 11 11 12 13 14 15 16 15 13 11 10 8 7 7 7 8 7 7 7 7 8 8 8
12 12 12 12 12 12 12 12 12 11 11 10 9 9 9 9 9 9 9 9 10 11 12 13 14 13 13 13 14 13 13 12 12 12 12 11 11 10 10 10 10 10 10 11 13 14 15 14 13 12 10 9 7 7 7 7 7 7 7 7 7 7 8
11 11 11 12 12 12 12 11 11 10 10 9 10 10 9 9 9 9 10 10 11 12 12 12 13 14 14 14 14 13 13 13 13 12 12 12 11 10 9 9 9 10 10 11 11 12 12 12 12 11 10 8 7 7 7 7 7 7 7 7 7 7 8
11 12 12 12 12 12 11 11 10 10 10 9 10 9 9 9 9 10 10 11 11 12 12 12 13 13 13 14 14 14 14 14 14 13 12 11 11 10 9 10 10 10 10 10 10 9 9 10 11 10 9 8 7 7 7 7 8 8 8 8 9 9 10
12 11 11 11 11 11 10 10 10 9 9 9 10 10 10 10 10 10 11 11 11 11 11 12 13 13 13 13 13 14 14 14 14 13 12 11 11 11 10 10 10 10 10 9 8 8 8 9 10 10 10 9 8 9 9 9 10 11 11 11 12 12 12
11 11 11 10 10 10 10 10 10 9 9 10 10 10 11 11 11 10 10 10 10 10 11 12 12 12 12 12 12 12 13 13 13 12 12 12 11 10 10 9 9 9 9 8 8 9 9 10 10 11 12 12 12 11 11 11 11 11 12 12 13 14 13
10 10 10 10 10 10 10 10 10 10 10 10 11 11 11 11 11 11 10 9 9 9 10 11 11 11 11 11 10 11 12 12 12 12 11 11 10 10 9 8 8 8 9 9 10 11 12 12 12 13 14 15 15 14 12 11 11 11 11 11 12 12 12
10 10 10 10 10 9 10 10 11 11 11 11 10 10 10 11 10 10 10 10 9 9 9 9 10 10 10 10 10 11 11 10 10 10 10 9 9 9 9 9 9 9 10 11 13 14 14 14 14 14 15 15 14 14 12 11 11 10 10 10 10 11 10
10 9 9 9 9 9 10 12 12 12 12 11 11 10 10 10 10 10 9 9 9 9 10 10 10 10 10 9 9 9 9 9 8 8 8 9 9 10 10 10 11 11 12 13 14 14 14 14 14 13 13 13 12 12 11 11 10 10 9 9 9 10 10
9 9 9 9 9 10 11 12 12 12 11 11 11 10 10 10 10 10 9 9 9 9 10 10 10 10 10 9 8 8 7 8 8 9 9 10 11 11 11 11 11 11 12 12 13 13 13 13 13 12 12 12 11 11 10 10 10 9 9 10 10 10 10
8 8 9 10 10 11 11 11 11 10 10 10 10 10 10 11 11 10 10 9 9 8 8 8 8 8 8 8 9 9 9 10 10 10 10 11 11 11 11 10 10 10 10 10 10 11 12 12 12 12 12 12 12 11 11 10 10 9 10 10 10 10 10
9 8 8 9 10 10 10 10 9 9 9 9 9 9 9 10 10 10 10 9 8 8 7 7 7 8 8 9 10 11 12 12 12 11 10 9 9 9 9 9 9 9 9 9 10 10 11 12 12 12 12 12 12 12 12 11 10 10 10 10 10 10 10
11 10 10 9 9 9 9 9 9 9 8 8 8 9 9 10 10 10 9 9 8 7 7 8 8 9 10 10 11 11 11 11 11 11 10 10 9 8 8 8 8 8 8 9 9 10 11 11 12 12 12 12 12 11 11 11 10 10 10 10 10 10 10

ECMWFFLT1_250_rhum_126.txt.gz
RH
98 96 95 95 96 98 100 101 101 100 99 96 94 94 95 96 96 95 94 95 95 95 93 91 88 84 80 78 76 74 73 72 70 68 66 64 64 63 61 58 54 51 50 47 43 41 36 31 27 24 23 22 21 20 18 17 17 16 16 16 15 15 15
102 99 97 97 97 98 99 99 100 99 98 97 96 96 96 96 95 94 93 91 92 94 93 89 87 87 86 85 82 80 79 79 77 74 71 68 65 61 58 53 47 41 36 32 28 25 24 23 23 23 23 23 22 21 20 20 19 18 18 17 16 16 15
101 99 98 97 96 95 95 95 97 98 97 98 98 98 97 96 95 94 94 94 94 93 91 89 88 89 89 87 86 84 83 84 82 77 73 68 62 57 51 43 35 28 24 22 21 21 21 22 21 22 22 22 22 21 21 22 21 20 19 18 17 16 15
101 98 95 93 92 91 91 91 93 94 94 96 97 98 99 99 99 98 98 98 98 96 93 91 90 91 91 90 91 90 87 84 81 76 71 64 55 46 38 30 24 21 20 20 20 20 20 20 19 20 21 21 21 21 21 21 21 20 19 17 16 15 14
98 96 93 91 90 90 89 90 90 91 91 93 94 95 97 98 99 99 98 97 98 97 95 93 93 94 93 91 89 89 86 82 77 69 59 49 39 31 27 24 22 21 20 19 19 19 19 19 19 19 19 19 19 19 18 18 18 17 16 14 14 13 13
95 94 93 92 91 91 91 91 89 89 91 92 92 92 93 94 94 95 95 95 96 95 93 92 92 92 90 88 86 83 78 70 60 49 38 31 28 26 24 23 22 21 20 19 18 18 18 18 18 17 17 17 16 15 15 15 14 14 13 12 12 12 12
96 95 96 96 95 94 94 93 91 91 92 92 92 91 91 92 91 91 91 91 92 92 90 88 87 85 81 76 70 62 53 44 36 31 28 27 26 25 24 23 22 20 19 18 17 17 17 16 15 14 14 14 14 13 13 13 12 12 12 12 12 12 12
101 101 101 101 101 98 97 96 94 94 93 92 91 90 89 89 87 86 85 84 83 80 77 72 67 61 55 48 42 37 33 30 28 27 27 26 26 24 23 22 20 19 17 16 15 15 14 14 13 13 13 12 12 12 12 12 11 12 12 12 12 12 12
104 104 103 103 102 100 98 98 96 96 94 92 90 86 82 79 74 71 66 62 58 53 49 45 40 36 33 31 30 30 29 28 27 27 26 25 24 22 21 19 18 16 15 14 13 13 13 12 12 13 13 13 13 12 12 11 11 11 12 12 12 12 12
102 103 103 103 101 99 97 94 91 86 81 76 70 64 58 53 48 43 40 37 34 33 31 30 29 29 29 29 29 28 28 27 26 25 24 22 21 19 18 17 15 14 13 12 12 12 12 12 13 13 13 13 12 12 11 11 11 11 11 12 12 11 11
93 92 91 88 84 79 74 68 62 56 50 46 42 38 35 32 30 29 28 28 28 28 28 28 28 28 28 28 28 28 27 26 24 22 21 19 18 16 15 14 13 12 12 12 12 12 12 13 14 14 13 12 12 11 11 11 11 10 10 10 10 10 11
63 59 56 52 49 45 42 39 37 35 33 31 30 29 28 27 27 27 27 27 28 27 27 27 27 27 27 27 26 25 23 22 20 19 17 16 15 13 13 13 12 12 12 12 12 12 13 14 14 13 12 11 11 10 9 10 10 9 9 9 9 9 10
36 35 34 33 32 32 32 31 31 30 30 30 29 28 28 27 27 26 26 26 26 26 26 25 25 24 24 23 22 20 19 18 16 15 14 13 12 12 12 12 12 12 12 12 12 12 13 13 12 12 11 10 9 9 8 9 9 8 8 8 8 9 9
29 29 29 29 29 29 29 29 29 29 29 28 28 26 25 25 24 24 24 24 23 23 22 22 21 20 19 18 17 16 15 14 13 13 12 12 12 12 12 12 12 12 12 11 11 11 12 11 10 10 10 9 8 8 8 8 7 7 7 8 8 9 8
26 26 26 26 26 26 27 27 27 27 26 25 24 23 21 20 20 20 20 20 19 19 18 17 16 15 15 14 14 13 13 13 12 12 11 11 11 12 12 12 12 11 11 10 10 10 9 9 9 9 9 9 8 7 7 7 7 7 8 8 9 9 9
24 24 24 24 24 24 24 24 23 22 22 21 20 19 17 17 16 16 16 16 15 14 14 13 13 13 13 13 13 13 13 13 12 11 11 11 11 11 11 11 11 11 10 9 9 9 9 9 9 9 8 8 8 7 7 7 7 8 9 9 9 10 11
22 22 22 21 21 20 20 19 19 18 17 16 16 15 14 13 13 12 12 13 13 13 13 12 12 12 13 13 13 14 13 12 11 11 10 10 10 10 10 11 11 10 10 9 8 8 9 9 9 8 8 8 8 8 8 8 8 9 9 9 9 10 11
18 18 17 17 16 16 16 15 14 14 13 13 13 12 11 11 11 11 11 11 12 12 13 13 13 13 13 13 14 13 12 11 10 10 10 10 10 10 11 11 11 10 9 9 8 8 8 8 9 9 9 9 9 9 9 9 9 9 9 9 9 10 10
14 14 13 13 13 12 12 12 11 11 11 11 11 11 10 10 10 11 11 11 12 12 13 14 14 13 13 12 12 12 11 11 10 10 10 10 10 10 11 11 10 9 9 8 8 8 8 8 9 10 10 10 10 10 9 9 9 9 9 9 9 9 9
11 11 10 10 10 10 10 10 10 10 10 11 11 11 10 10 11 11 11 12 12 12 13 13 13 13 12 12 11 11 11 11 10 9 9 9 9 10 10 10 8 8 8 8 8 8 9 9 10 10 10 11 11 11 10 9 9 9 10 10 10 10 10
9 9 9 10 10 10 10 10 11 11 11 11 11 11 11 11 11 11 11 11 12 11 12 12 12 12 13 12 12 12 11 10 10 9 8 8 9 9 9 9 8 8 8 8 9 9 10 10 11 11 11 11 11 11 10 9 9 9 10 11 12 12 12
9 9 10 10 10 10 10 10 11 11 11 11 11 11 11 11 11 11 10 10 11 11 11 12 12 13 13 13 12 11 11 10 9 8 8 8 9 9 8 8 8 8 9 9 10 10 10 11 11 11 11 11 11 10 10 10 9 9 10 11 12 12 12
10 10 10 10 10 10 10 10 11 11 11 11 11 11 11 10 10 10 10 10 11 11 11 12 12 12 12 11 11 10 10 9 9 9 9 8 8 8 8 8 9 9 10 10 10 10 11 11 11 11 11 10 10 9 9 9 9 10 10 11 11 11 11
9 10 10 9 10 10 10 11 11 11 11 11 10 11 11 10 10 10 10 10 10 10 10 10 10 10 10 10 10 10 10 9 9 9 9 9 9 9 9 10 10 10 11 11 11 11 11 11 11 11 10 10 9 8 8 8 8 8 9 9 9 9 9
9 9 10 10 11 11 11 11 11 11 11 10 10 11 10 10 10 9 9 9 9 9 9 9 9 9 9 9 10 10 10 10 10 10 10 10 10 10 10 10 10 10 11 11 11 12 12 13 13 12 11 10 9 9 8 7 6 6 7 7 8 8 9
9 9 10 10 10 10 10 10 10 10 10 10 10 10 9 9 9 8 8 8 8 8 8 8 9 9 9 10 10 10 10 10 10 11 11 10 10 10 10 10 9 10 10 10 11 12 13 14 15 14 14 13 11 10 9 8 7 6 6 7 7 8 8
9 9 10 10 10 10 10 10 9 9 9 9 9 9 8 8 8 8 8 8 8 8 8 8 9 9 10 11 11 11 11 10 10 11 11 10 10 9 9 9 9 9 10 10 11 11 11 12 13 13 14 14 13 12 11 9 8 7 6 6 7 7 8
9 9 9 9 9 9 9 9 9 8 8 8 8 8 8 8 8 8 8 8 8 9 9 9 10 10 10 10 10 11 11 11 11 11 11 11 10 9 9 9 9 9 9 9 9 9 9 10 11 11 13 13 13 13 12 10 8 7 6 6 6 7 8
8 8 8 8 8 9 9 9 9 9 8 8 8 8 8 8 8 8 9 9 9 9 9 10 10 10 10 11 10 11 11 11 11 11 11 11 11 10 9 8 8 8 9 8 9 9 9 9 10 10 11 11 11 11 10 9 8 7 6 7 7 7 8
8 8 8 8 8 8 9 9 9 9 8 8 7 8 8 8 9 9 9 9 9 9 9 10 10 10 10 10 10 11 11 11 11 11 11 11 11 10 10 9 9 8 8 8 8 8 8 8 8 8 9 9 9 9 9 9 8 8 7 8 8 9 10
8 8 8 8 8 8 9 9 9 9 8 8 8 8 8 8 8 9 9 9 8 9 9 9 9 9 10 9 9 10 10 10 10 10 10 11 10 10 10 10 9 8 7 7 7 7 7 7 7 7 8 8 9 10 10 11 11 10 9 9 9 10 10
7 7 7 8 8 8 9 9 9 9 9 8 8 8 8 9 9 8 8 8 8 9 9 9 9 8 8 8 8 8 9 9 9 9 10 9 9 9 9 9 8 7 7 7 7 7 8 8 9 9 10 10 11 12 12 13 13 12 11 10 10 10 9
7 7 7 8 8 8 8 9 9 9 9 8 9 9 9 10 10 8 8 8 8 8 8 8 9 9 8 8 8 8 8 8 8 8 8 8 8 8 8 8 8 8 8 9 9 9 9 10 10 10 11 11 11 11 12 12 12 11 11 10 9 9 8
7 7 8 8 8 8 8 8 8 9 9 9 9 10 10 10 10 9 9 8 8 8 8 8 8 8 8 8 8 7 7 6 6 6 7 7 8 9 9 9 9 9 10 10 9 9 9 9 9 9 9 10 10 10 11 11 11 11 10 10 9 9 8
6 7 7 7 8 8 8 8 8 9 9 9 9 10 10 10 10 9 9 8 8 8 8 7 7 7 7 7 7 7 8 8 8 8 8 7 8 8 9 9 9 9 9 9 8 8 9 8 9 9 9 9 10 10 11 11 11 11 11 10 9 9 8
7 7 6 6 7 7 8 8 8 8 9 9 9 9 8 8 8 8 8 8 8 7 7 6 6 6 6 7 8 8 9 9 9 9 8 8 7 7 7 7 7 7 8 8 8 8 8 8 8 9 9 9 10 10 11 11 10 10 10 10 9 9 8

ECMWFFLT1_250_rhum_129.txt.gz
RH
107 110 109 109 109 106 104 106 107 105 104 101 97 96 94 91 90 89 90 90 90 90 91 91 92 93 94 92 88 86 85 85 83 81 79 76 74 72 71 69 66 62 59 58 59 62 65 65 63 61 62 63 63 61 59 58 58 57 57 56 55 53 51
110 110 108 108 108 104 104 108 108 103 100 98 94 93 92 90 88 86 86 86 85 86 87 86 86 87 89 87 84 83 82 82 81 79 78 78 77 76 75 73 69 64 60 58 58 60 63 64 63 62 62 62 61 59 56 55 55 55 54 54 53 53 53
109 107 106 109 109 106 104 106 107 104 101 98 97 96 94 93 91 88 88 88 87 86 85 83 83 84 85 83 81 80 80 79 79 79 79 80 79 78 77 75 71 66 62 59 59 60 62 65 65 65 64 62 61 58 55 54 53 52 53 54 56 57 58
108 106 107 109 108 107 105 104 105 105 102 99 100 101 98 97 96 94 92 92 91 88 86 83 83 84 84 83 81 81 82 81 81 81 81 81 80 79 78 76 73 68 64 62 60 61 64 68 68 68 66 65 63 60 58 56 56 55 56 57 56 55 52
108 107 108 109 107 106 104 104 105 105 103 102 103 104 103 102 101 99 96 95 94 92 89 87 86 87 87 85 84 85 86 85 84 83 83 83 82 82 80 78 76 73 69 66 65 66 68 71 71 71 70 69 67 64 60 58 56 54 52 47 42 37 33
107 107 109 109 110 109 107 106 106 106 106 105 103 102 101 100 99 98 97 97 96 95 93 91 90 90 90 88 87 88 88 88 87 86 85 84 84 83 81 80 78 76 73 70 69 70 71 72 72 71 69 66 62 57 50 46 43 40 35 31 27 24 23
109 109 109 109 111 112 111 108 105 102 101 99 97 95 93 93 93 93 93 94 95 95 94 92 92 91 90 89 89 89 89 88 87 86 85 85 85 84 82 80 77 74 70 67 65 63 61 60 58 55 51 47 42 37 33 31 29 27 24 22 22 21 20
110 110 109 108 108 108 106 104 101 98 96 94 93 91 90 90 90 90 90 91 92 92 92 91 90 90 89 89 89 89 88 87 85 83 82 80 78 74 69 64 59 54 50 47 44 42 40 38 36 34 33 31 29 27 27 26 24 23 22 21 20 19 18
99 101 102 103 103 102 102 101 100 99 97 96 95 94 93 92 91 91 90 90 89 88 87 86 85 84 82 80 78 76 73 70 66 63 59 55 51 47 43 39 35 33 32 31 31 30 29 29 28 28 28 28 27 27 25 23 21 20 20 18 17 16 17
65 68 72 74 76 78 79 80 80 81 81 81 81 79 78 76 74 72 70 69 68 66 63 62 60 57 55 53 50 48 46 44 42 40 38 36 34 32 31 30 29 29 28 28 28 28 28 27 27 27 27 27 26 25 23 21 19 17 16 15 15 16 16
36 37 38 40 42 43 44 45 46 47 47 47 47 46 45 43 42 41 40 39 39 38 37 37 36 35 35 35 35 35 35 35 34 33 33 32 31 31 30 29 28 28 27 27 27 27 26 26 26 26 25 24 23 22 20 18 16 15 14 14 15 15 14
28 28 28 29 29 30 30 31 30 30 30 30 30 29 29 29 29 29 29 30 30 30 30 31 31 31 32 32 33 33 33 32 32 32 32 31 30 29 28 27 26 25 24 24 24 24 24 23 23 22 21 21 20 18 16 15 14 14 13 13 13 13 13
24 25 25 25 26 26 26 26 26 26 26 26 26 26 26 26 27 27 28 28 28 28 28 28 28 28 29 30 30 30 30 30 30 29 28 27 26 25 24 24 23 22 21 21 21 21 21 20 20 19 18 18 17 15 14 13 13 12 12 12 12 13 13
21 21 21 22 22 22 23 23 23 24 24 24 25 24 24 24 24 25 26 25 25 25 25 25 26 26 26 27 27 27 27 26 25 23 22 21 21 20 20 20 19 19 18 18 17 17 17 17 16 15 15 15 14 13 13 13 13 12 12 12 13 14 14
19 20 20 20 20 21 22 22 22 23 23 23 23 23 23 22 22 23 23 23 23 23 23 23 22 22 22 22 22 22 21 20 19 19 18 18 18 18 17 17 16 16 15 14 14 14 14 14 14 14 14 13 13 13 13 13 13 13 13 13 14 14 14
20 20 20 21 21 21 22 22 22 22 22 22 21 21 20 20 19 19 19 19 19 19 18 18 17 17 17 17 18 18 17 17 16 16 15 15 15 15 14 14 14 14 13 13 13 13 13 13 13 13 13 13 14 14 14 13 13 13 14 13 13 13 13
16 17 17 17 17 17 17 17 17 16 16 16 16 15 14 14 14 14 14 14 14 14 14 14 14 14 14 14 15 15 15 14 13 13 13 13 13 13 13 13 13 13 13 13 13 13 14 14 14 14 14 14 14 13 13 12 12 13 13 12 11 12 12
11 11 11 11 11 11 11 11 11 11 11 11 11 11 11 11 11 11 11 11 11 12 13 13 13 13 12 13 13 13 12 12 12 12 12 12 12 12 13 13 14 14 13 13 13 13 14 14 14 14 13 13 12 12 12 12 12 12 11 10 11 11 10
8 8 8 8 8 9 9 9 9 9 9 10 9 10 9 9 10 10 10 10 10 11 11 11 12 12 12 12 12 12 12 12 12 12 12 13 13 13 14 14 14 14 13 13 13 13 13 14 13 13 12 12 12 11 11 11 11 11 10 9 10 10 9
8 8 8 8 8 8 8 9 9 9 9 9 9 9 9 9 9 10 10 10 10 10 11 11 11 12 12 12 13 13 13 12 12 12 12 13 13 13 14 14 13 13 13 12 12 12 12 12 12 12 12 11 11 11 11 10 10 9 9 9 8 8 9
8 8 8 8 8 8 8 9 9 9 9 9 9 9 9 9 9 10 10 10 10 11 11 12 12 12 13 13 13 14 13 13 12 12 11 12 13 13 13 12 12 12 12 11 11 11 11 12 12 11 11 11 10 11 10 9 9 8 8 9 8 9 9
8 8 8 8 8 9 9 9 9 9 9 10 10 10 10 10 10 10 11 11 12 12 12 12 13 13 13 14 14 14 14 13 13 12 11 11 12 12 12 11 11 11 11 11 11 11 11 11 11 11 10 10 9 10 9 9 9 8 8 9 9 10 10
8 8 8 8 9 9 10 10 10 10 10 10 10 10 10 10 10 10 11 11 12 12 12 12 13 13 13 13 13 13 13 12 12 11 10 10 10 10 10 10 10 10 10 10 10 10 10 11 11 10 10 10 9 9 9 9 8 9 9 10 10 11 11
8 9 9 10 10 10 10 11 11 11 11 11 10 10 10 10 10 10 10 10 11 11 12 12 12 12 12 11 11 11 11 11 11 10 10 10 9 9 9 9 9 9 10 10 10 10 10 10 10 10 10 10 10 9 9 9 9 10 10 10 10 11 12
9 10 11 11 11 11 10 10 10 10 10 10 10 10 9 9 9 9 9 9 10 10 10 11 11 11 11 11 10 10 10 10 10 10 9 10 9 9 9 9 9 9 9 9 10 10 10 10 10 10 11 11 11 11 10 11 11 10 10 10 10 11 11
10 10 11 11 11 11 10 10 10 10 10 10 10 9 9 9 9 9 9 9 10 10 10 10 10 10 10 10 10 10 10 10 10 10 10 10 10 9 9 9 9 9 9 9 10 10 11 11 11 11 12 12 12 11 11 11 11 11 10 10 11 11 11
9 9 10 10 10 10 10 10 9 9 9 9 9 9 9 9 9 9 9 9 10 10 9 9 9 9 9 9 9 10 10 10 11 10 10 10 10 9 9 9 9 9 9 9 10 11 12 13 14 14 14 13 12 11 11 10 10 10 10 10 10 10 11
8 8 9 9 9 9 9 9 9 9 8 8 8 8 9 9 9 9 9 9 9 9 8 8 8 8 9 9 9 10 10 10 10 10 9 10 10 10 10 10 10 10 10 10 11 11 11 12 13 13 14 13 13 12 11 10 9 9 9 9 9 9 10
7 8 8 8 8 8 9 8 8 8 8 8 8 8 8 8 8 9 9 9 9 8 8 8 8 9 9 9 9 9 9 9 9 10 10 10 11 11 11 11 10 10 10 10 10 10 10 10 11 11 12 13 13 13 12 11 10 9 8 8 8 9 10
7 7 8 8 8 8 8 8 9 8 8 8 8 7 8 8 8 8 8 8 8 8 8 9 9 8 9 9 9 9 10 10 10 10 11 11 11 10 10 10 10 10 9 9 9 9 9 9 10 10 11 11 12 13 12 12 11 10 10 9 9 9 9
7 8 8 8 8 8 8 8 9 8 8 8 7 7 8 8 7 7 8 8 8 8 8 9 9 9 9 9 9 10 10 11 11 11 11 11 10 10 10 10 10 9 9 8 8 9 9 9 9 10 10 10 11 11 11 11 11 11 10 10 10 9 9
7 7 8 8 8 8 8 8 8 8 8 7 7 8 8 8 7 7 8 8 8 8 9 9 9 10 10 9 9 10 10 10 11 11 11 11 10 10 10 10 9 9 9 9 8 8 9 9 9 9 9 9 9 9 9 10 10 10 10 9 9 9 10
8 8 8 8 8 8 8 8 8 8 8 8 8 9 9 8 8 8 8 8 8 8 9 9 9 10 10 10 10 9 9 9 9 9 10 10 10 10 10 10 9 9 9 9 8 8 7 7 7 8 8 8 8 8 8 9 9 10 10 10 10 11 11
7 8 8 8 8 8 8 8 8 9 9 9 9 9 9 8 8 8 8 8 9 8 8 8 8 9 9 9 9 9 9 9 9 8 8 9 9 9 9 9 9 8 8 8 8 7 7 7 7 8 8 9 9 9 10 10 11 11 11 11 12 12 13
6 7 7 8 8 8 8 8 8 9 9 9 9 9 9 9 9 9 9 9 9 9 9 8 8 8 8 8 8 9 9 9 8 8 8 8 7 7 8 8 8 8 8 9 9 8 8 8 8 8 8 8 9 9 10 10 10 10 10 11 11 11 12
6 6 7 7 8 8 8 8 8 8 8 9 9 9 10 10 10 10 10 9 9 9 9 9 9 9 8 8 8 8 8 8 8 8 8 8 8 8 8 8 8 8 8 8 8 9 8 8 8 8 7 7 8 8 9 9 10 10 10 10 10 10 10

ECMWFFLT1_250_rhum_132.txt.gz
RH
99 101 102 103 105 105 104 103 105 106 105 103 103 102 102 107 109 105 104 106 106 106 107 107 105 104 106 103 97 93 91 90 88 84 82 79 77 76 74 70 65 60 58 58 58 60 63 66 67 67 65 64 62 60 58 58 60 61 62 63 65 66 65
98 99 100 101 101 101 101 100 101 103 103 103 106 107 103 105 109 107 105 105 106 105 106 106 104 104 104 101 96 94 93 92 88 83 81 79 77 77 75 72 67 62 58 57 55 56 59 61 62 64 65 65 64 61 60 60 62 64 64 65 65 65 65
98 98 100 101 101 101 102 100 100 101 102 102 105 106 103 103 107 109 108 107 106 104 103 102 101 101 101 98 95 95 95 94 90 86 84 83 81 79 77 74 69 64 60 58 57 56 58 61 64 66 68 68 67 66 65 65 66 66 66 66 66 67 67
99 99 98 99 100 101 102 101 101 102 101 101 102 103 101 101 103 104 105 106 105 102 100 99 98 100 102 101 98 99 99 98 95 92 90 89 87 84 82 78 74 70 66 64 62 61 63 66 69 70 71 71 70 69 69 69 69 68 68 69 69 69 70
102 103 102 102 101 100 100 101 101 101 100 100 101 103 103 102 102 101 101 102 102 101 101 100 100 102 104 104 101 99 101 102 101 98 97 96 94 92 89 85 81 78 75 74 72 71 71 72 73 75 75 75 75 75 73 73 73 74 75 75 75 75 75
84 89 93 98 99 99 101 102 102 103 103 101 101 101 101 101 101 101 101 101 101 102 102 103 103 102 103 103 101 100 101 105 106 103 101 100 99 98 97 92 90 89 89 88 87 83 79 78 79 81 82 82 82 81 78 77 79 81 82 82 80 78 75
53 58 63 69 75 79 84 89 93 97 100 101 101 102 102 101 102 102 101 100 101 101 100 101 101 101 101 100 100 101 103 104 104 103 102 102 102 100 100 99 100 103 104 101 96 91 86 84 84 85 87 87 86 84 81 80 82 82 80 76 72 68 64
38 40 41 44 47 50 54 58 63 67 72 78 84 90 94 98 102 105 105 105 105 104 103 102 101 101 103 102 102 104 105 105 104 105 106 107 106 105 105 107 109 110 110 106 100 95 88 83 80 79 79 78 74 71 68 65 63 60 54 51 48 45 42
33 33 34 35 36 37 37 39 40 42 44 47 52 57 64 70 78 85 90 95 99 102 104 105 106 107 109 110 109 109 110 111 111 112 111 110 111 111 109 107 105 102 98 92 86 79 69 61 56 53 51 49 45 43 42 39 36 34 32 31 29 27 26
28 29 30 31 32 33 34 34 34 34 34 34 35 36 39 42 46 51 56 62 68 74 80 84 88 91 93 95 96 97 98 98 97 95 93 91 90 87 83 78 72 67 62 56 51 46 40 36 33 32 31 31 31 31 30 29 28 27 26 25 23 22 22
23 24 25 27 28 30 31 31 31 31 31 30 30 30 30 31 33 35 37 39 43 47 51 54 57 60 62 63 64 65 64 63 61 59 57 55 52 49 46 43 40 38 36 35 33 32 30 29 29 29 28 29 29 29 29 27 26 24 23 22 21 22 22
20 21 21 21 21 22 22 22 22 23 23 23 24 24 24 25 25 27 28 29 31 32 34 36 37 38 39 39 40 40 40 39 38 37 36 35 34 33 32 32 32 33 32 31 31 30 29 27 27 27 27 27 27 26 25 24 23 22 21 21 20 21 21
17 16 15 15 15 14 14 14 14 14 15 15 16 16 17 17 18 19 21 22 22 23 24 25 26 26 27 28 28 28 28 28 28 28 28 28 27 27 28 28 28 28 28 27 26 25 25 25 25 25 25 25 24 23 22 22 22 21 20 18 18 18 19
12 11 11 11 11 11 11 11 11 12 12 12 13 13 13 13 14 15 16 16 17 18 18 19 19 19 20 21 22 22 22 23 23 22 22 22 22 23 23 23 23 24 24 24 23 22 22 23 23 23 24 23 22 21 20 20 19 17 16 15 15 15 16
9 9 9 9 9 9 10 10 10 10 10 11 11 11 12 12 13 13 13 14 14 15 15 16 16 17 17 18 19 19 20 20 19 19 19 19 20 20 20 20 21 22 22 22 21 20 20 20 20 20 20 19 17 16 16 15 14 13 13 13 13 13 14
8 8 8 8 8 8 8 8 8 9 9 9 9 9 10 10 11 11 11 11 12 12 13 13 13 14 14 15 15 16 16 16 16 15 16 16 16 16 16 17 18 18 18 17 16 16 15 15 15 14 14 13 13 12 12 12 12 11 12 12 12 12 12
7 7 7 7 7 7 7 7 7 7 7 7 7 7 8 8 8 9 9 9 9 9 9 10 10 10 10 10 11 11 11 11 11 11 11 12 12 12 12 13 13 13 13 12 11 11 11 11 11 11 11 11 11 10 10 10 10 10 11 10 10 10 11
6 6 6 6 6 6 7 7 7 7 7 7 7 7 7 7 7 7 7 7 7 7 8 8 8 8 9 9 9 10 10 10 10 10 10 10 10 10 10 11 11 11 10 10 9 9 9 9 9 9 9 9 9 9 9 9 10 10 10 10 10 11 11
6 6 6 6 6 6 6 6 6 6 6 6 6 6 6 7 7 7 7 7 7 7 8 8 8 8 8 9 9 9 9 9 9 9 9 9 9 9 9 9 9 9 8 8 8 8 8 9 9 9 9 9 9 10 10 10 10 10 10 10 11 11 11
6 6 6 6 6 6 6 6 6 6 6 6 6 6 6 6 6 7 7 7 7 7 7 8 8 8 8 8 8 8 8 8 8 8 8 8 8 8 8 9 9 9 9 9 9 9 9 9 9 9 10 10 10 10 10 11 11 10 10 11 11 11 11
6 6 6 6 6 6 6 6 6 6 6 6 6 6 6 6 6 6 6 7 7 7 7 7 7 7 7 8 8 8 8 8 8 8 8 8 9 9 9 9 9 9 9 9 9 10 10 10 10 10 10 11 12 11 11 11 11 11 10 10 11 11 11
6 6 6 6 6 6 6 5 5 6 5 5 5 5 5 5 6 6 6 6 7 7 7 7 8 8 8 8 9 9 9 9 9 9 8 8 9 9 9 9 9 9 9 9 10 10 11 11 11 11 11 11 11 12 11 11 11 11 10 10 10 10 11
6 6 6 6 6 6 6 6 6 6 6 6 5 5 5 6 6 6 6 7 8 8 8 9 9 9 9 9 9 9 9 9 9 9 9 8 8 9 9 9 9 9 9 9 10 10 11 11 11 11 11 11 11 11 10 10 10 10 11 11 11 10 11
6 6 6 6 6 6 6 6 6 6 6 6 6 6 6 6 6 7 7 8 8 9 9 10 9 9 9 9 9 9 9 9 9 9 9 9 9 9 9 9 9 9 10 9 9 10 10 11 11 11 10 10 10 9 9 9 9 10 10 10 10 10 10
6 6 6 6 6 6 6 6 6 6 6 6 6 6 6 6 7 7 7 8 9 9 9 9 9 9 9 9 9 9 9 9 9 10 10 10 9 9 9 9 8 9 9 9 9 9 9 10 10 10 10 10 9 8 8 9 9 8 8 9 9 9 10
6 6 6 6 6 6 6 6 6 6 6 6 6 6 6 7 7 7 7 8 8 8 8 8 8 8 9 9 9 9 9 9 9 9 9 9 9 9 8 8 8 8 8 9 9 9 9 9 9 9 9 9 9 9 9 8 8 8 8 8 8 9 9
6 6 6 6 5 5 6 6 5 5 5 5 6 6 6 7 7 7 7 7 7 7 7 7 7 8 8 9 9 9 9 8 8 8 8 8 8 8 8 8 7 7 8 8 8 9 9 9 9 9 9 8 8 8 8 8 8 8 8 8 8 8 8
6 6 6 6 5 5 6 5 5 5 5 5 5 5 6 7 7 7 7 7 7 7 7 7 7 8 8 8 8 8 8 8 8 8 8 8 8 7 7 7 7 7 7 7 8 8 8 9 9 9 9 9 8 8 8 8 8 8 8 8 7 7 8
6 6 6 6 6 6 6 6 6 5 5 5 5 6 6 6 6 6 6 7 7 7 7 7 7 7 7 7 8 8 8 8 8 8 8 8 8 8 7 7 7 7 7 7 7 7 8 8 8 9 9 9 10 9 9 9 8 8 7 7 7 7 8
6 7 6 6 6 6 6 6 6 5 5 5 5 6 6 6 6 6 6 7 7 6 7 7 7 7 7 7 7 8 8 8 8 8 8 8 8 8 8 8 8 7 7 7 7 7 7 7 7 8 8 9 10 10 10 10 9 8 8 7 7 7 7
7 7 7 7 7 7 6 6 6 6 6 5 6 6 6 6 6 6 7 7 7 7 7 7 7 7 7 7 7 7 7 8 8 8 8 8 8 8 8 8 8 8 7 7 7 7 7 8 8 8 8 8 9 10 10 10 10 10 9 8 7 7 7
7 7 7 7 7 7 7 7 6 6 6 6 6 6 6 6 6 6 6 6 6 7 7 7 7 7 7 7 7 7 7 7 7 7 8 8 8 8 8 8 8 8 7 7 7 7 7 7 7 7 8 8 8 8 9 9 9 10 10 9 9 8 8
7 8 8 8 7 7 7 7 7 7 6 6 6 6 6 6 6 6 6 7 6 7 7 7 7 7 7 7 7 7 7 7 7 7 8 8 8 8 8 8 8 8 8 7 7 7 7 7 7 7 7 7 7 8 8 8 8 9 9 9 9 9 9
7 7 7 7 7 7 7 7 7 7 7 7 7 7 6 6 6 6 7 6 6 7 7 7 7 7 7 7 7 7 8 8 8 8 8 8 8 8 7 8 7 7 7 7 7 7 7 6 6 6 6 6 6 6 7 7 7 8 8 8 8 8 8
6 6 6 6 6 6 7 7 7 8 8 8 8 7 7 7 7 7 6 6 7 7 6 7 7 7 7 7 7 7 7 7 7 7 7 7 7 7 7 7 6 6 6 6 6 7 7 6 6 6 6 6 6 6 7 7 7 8 8 8 8 9 9
6 6 6 6 6 6 7 7 7 8 8 8 8 8 7 7 7 7 7 7 7 7 7 7 8 7 7 7 7 7 7 6 6 7 6 6 7 6 6 6 6 6 6 6 6 6 7 7 7 7 7 6 6 6 7 7 7 8 8 8 8 8 9

ECMWFFLT1_250_rhum_135.txt.gz
RH
90 90 89 85 81 78 76 77 79 81 83 85 87 88 88 89 91 95 98 101 103 103 103 103 103 104 105 106 105 104 103 103 102 101 100 97 95 95 94 92 88 83 81 87 94 98 100 102 102 101 98 96 93 89 85 81 77 73 70 69 68 67 66
102 101 99 95 90 84 79 75 73 71 70 71 74 77 79 80 80 82 86 89 93 95 96 96 97 99 103 104 105 104 104 103 102 102 101 99 97 97 97 97 92 85 81 83 89 95 98 98 97 98 97 97 97 93 89 84 79 76 74 73 72 70 69
96 102 106 107 107 105 100 94 87 82 76 71 67 66 67 69 69 70 73 76 80 84 86 86 87 90 95 98 100 101 102 101 99 99 99 98 97 96 96 96 92 87 82 82 86 89 91 91 90 91 90 90 91 89 86 83 80 78 76 74 72 70 70
57 68 78 88 97 105 109 108 102 97 92 86 79 74 71 68 65 64 64 66 69 72 74 75 77 81 86 88 90 93 97 99 99 100 100 99 98 96 96 94 89 85 80 78 80 82 83 85 85 86 86 85 86 85 83 80 78 77 74 72 70 70 70
35 38 44 50 58 67 77 84 86 87 86 84 82 81 80 79 77 73 69 68 67 67 66 66 67 70 75 78 79 82 86 90 92 93 93 94 95 95 95 93 88 84 79 75 75 76 78 81 84 86 86 85 84 83 80 77 75 75 74 73 72 73 75
33 34 35 37 39 42 46 51 55 59 61 62 63 64 66 69 71 71 70 70 69 68 67 64 64 65 68 69 71 73 77 81 83 85 86 87 90 92 92 91 88 85 82 78 76 76 76 79 83 86 86 84 82 79 77 75 75 75 76 77 78 78 78
33 34 34 36 37 38 39 41 42 44 46 47 48 48 49 50 52 52 53 55 56 58 59 60 60 62 64 64 63 64 67 70 73 75 78 81 85 89 91 90 90 89 87 83 80 78 77 78 80 83 83 82 79 77 75 74 76 77 76 77 78 77 76
32 33 34 35 36 37 38 39 40 41 42 42 42 43 43 43 44 44 43 43 44 45 47 49 50 53 54 55 55 55 57 58 59 60 62 66 71 77 80 82 84 86 86 84 82 81 79 77 77 79 80 79 77 76 77 77 78 76 73 72 75 76 77
29 31 32 33 34 36 37 38 39 40 41 41 41 41 41 41 42 42 42 42 42 42 42 43 44 45 46 47 48 48 49 51 51 52 53 54 57 61 64 66 69 72 74 75 76 77 76 74 73 73 75 77 77 80 82 80 76 76 75 75 77 76 75
24 25 27 29 30 31 32 34 35 37 38 40 41 41 41 41 41 40 40 40 39 40 40 40 40 41 41 42 43 43 44 45 46 46 47 48 50 52 54 55 57 60 62 64 66 67 67 66 66 67 71 76 78 82 84 79 75 76 76 73 70 67 65
19 20 21 23 25 26 28 29 30 32 34 35 37 38 39 40 41 41 40 39 39 39 39 39 39 38 38 39 39 39 40 41 41 41 42 42 43 44 45 46 48 49 52 53 55 55 54 54 55 57 61 65 68 71 72 69 64 62 59 53 50 49 48
18 18 19 20 21 22 23 24 25 26 27 28 30 31 32 34 36 37 37 37 37 37 38 39 39 39 39 39 39 38 38 38 38 38 38 38 38 39 40 41 42 44 45 45 45 45 43 42 43 45 46 47 49 50 50 47 43 39 37 34 32 33 34
15 15 16 16 17 17 17 18 18 19 19 20 21 22 23 25 26 28 29 29 30 31 31 32 33 34 35 35 36 36 35 35 36 35 36 35 35 36 36 37 39 40 40 39 38 36 35 35 35 34 34 33 33 32 31 29 29 27 26 25 24 25 26
12 12 12 12 13 13 13 13 13 14 14 15 15 16 17 18 19 20 20 21 22 23 24 25 25 26 27 28 29 29 30 31 32 32 33 33 33 33 33 33 33 33 33 32 30 28 28 28 27 27 26 25 24 23 23 23 23 22 21 21 20 20 21
9 9 10 11 11 11 12 12 12 13 13 13 14 14 15 16 16 16 16 16 16 17 17 17 17 18 18 19 19 20 20 20 20 21 21 21 21 22 22 22 23 23 24 24 22 21 21 21 22 21 21 21 20 20 20 20 20 19 18 18 19 19 20
9 9 9 10 10 11 12 12 13 14 14 14 14 13 14 14 13 12 12 11 11 11 11 11 10 11 11 10 11 11 11 11 11 11 11 11 12 12 12 13 14 15 15 16 15 15 16 16 17 17 18 18 18 18 18 18 17 17 17 18 18 18 19
9 10 11 11 12 13 13 12 12 12 12 11 10 10 10 10 9 9 9 9 8 8 8 8 8 8 8 8 9 8 8 8 8 8 8 8 9 9 9 9 10 11 11 12 12 12 13 14 14 15 15 16 16 16 17 16 15 15 15 15 15 15 16
12 13 13 14 14 13 11 10 9 8 8 7 7 8 8 8 8 8 7 8 7 7 8 7 7 7 7 7 7 7 7 7 7 7 7 7 7 7 8 8 8 9 9 9 9 10 10 11 11 12 12 12 13 13 13 12 12 12 12 11 11 11 12
13 13 13 12 11 9 8 8 7 7 7 7 7 7 6 7 7 6 6 6 6 7 7 6 6 6 7 7 7 7 7 6 7 6 6 7 7 6 7 7 7 7 8 8 8 8 8 8 9 9 9 9 10 10 10 10 10 10 9 9 9 9 9
13 11 10 9 8 8 7 7 7 7 7 6 6 6 6 6 6 6 6 6 6 6 6 6 6 6 6 6 6 6 6 6 6 6 6 6 6 6 6 7 7 7 7 7 8 7 7 8 7 7 8 8 8 8 9 9 9 9 8 8 8 8 8
11 9 8 8 8 7 7 7 7 7 7 6 6 6 6 6 6 6 6 6 6 6 6 6 6 6 6 6 6 6 6 6 6 6 6 6 6 6 6 7 7 7 7 7 7 7 7 7 7 7 7 7 8 8 8 8 8 8 8 8 8 8 8
9 8 8 7 7 7 7 7 7 7 7 6 6 6 6 6 6 6 6 6 6 6 6 6 5 5 5 5 5 6 6 6 6 6 6 6 6 6 7 7 7 7 7 7 7 7 7 7 7 7 7 7 7 7 8 8 9 9 8 8 9 8 9
8 8 7 6 6 7 7 7 7 7 7 6 6 6 6 5 6 6 6 6 6 6 6 5 5 5 5 5 6 6 6 6 6 6 6 6 6 6 7 7 7 7 7 7 7 7 8 8 8 8 8 8 8 8 8 9 9 10 10 10 9 10 10
7 7 6 6 6 6 7 7 7 7 7 7 6 6 6 6 6 6 6 6 6 6 6 5 5 5 5 5 5 5 6 6 6 6 6 6 6 6 6 6 7 7 7 8 8 8 8 9 9 9 9 9 9 9 9 9 9 10 11 10 10 9 9
6 6 6 6 6 6 7 7 7 7 7 7 7 7 6 6 6 6 6 6 6 6 6 6 6 6 6 6 6 5 5 5 5 5 5 6 6 6 6 6 6 6 7 7 8 8 8 9 9 9 9 9 9 8 8 8 9 9 10 10 10 9 8
6 6 6 6 6 6 7 7 7 6 6 6 7 7 7 7 6 6 6 6 6 6 5 5 5 6 6 6 5 5 5 5 5 5 5 5 6 6 6 6 6 6 6 6 7 7 8 8 8 8 8 8 8 8 8 7 8 8 8 9 9 9 8
6 6 6 6 6 7 7 7 7 6 6 6 7 7 8 7 7 7 7 7 6 6 6 6 6 6 6 6 6 6 6 5 5 5 5 5 5 5 6 6 6 6 6 6 6 6 7 7 8 7 7 7 7 7 7 7 7 7 7 8 8 8 8
6 7 7 7 7 7 7 7 7 7 6 6 6 7 7 7 6 7 8 7 6 6 6 6 6 6 6 7 6 6 6 6 6 6 6 5 5 5 5 5 6 6 6 6 6 6 6 7 7 7 7 7 7 7 7 7 6 6 6 7 7 8 8
7 7 7 7 7 7 8 8 7 7 6 6 6 6 6 6 6 7 7 6 6 6 6 6 6 6 6 6 6 6 6 6 6 6 6 6 6 6 5 5 6 6 6 6 6 6 6 6 7 7 7 7 8 8 7 7 6 6 6 6 6 7 8
7 7 7 7 7 7 8 7 7 7 6 6 6 6 6 5 6 6 6 6 6 6 6 6 6 6 6 6 6 6 6 6 6 6 6 6 6 6 6 6 5 5 6 6 6 6 6 6 6 7 7 7 8 8 8 8 7 7 6 6 6 6 7
6 7 7 8 8 8 8 8 8 7 7 6 6 6 5 5 5 5 6 6 6 6 6 6 6 6 6 6 6 6 6 6 6 6 6 6 6 6 6 6 6 6 6 6 6 6 6 6 6 6 7 7 7 8 8 8 8 8 7 7 6 6 6
7 7 8 8 9 9 9 9 8 8 8 7 7 6 6 5 5 5 5 5 5 6 6 6 6 6 6 6 6 6 6 6 6 6 6 6 6 6 6 6 6 6 6 6 6 6 6 6 6 6 6 7 7 7 8 8 8 8 8 8 8 7 7
8 8 8 8 9 10 10 10 10 9 9 8 7 7 7 6 6 6 6 6 6 6 6 6 6 6 6 6 6 6 6 6 6 6 6 6 6 6 6 6 6 6 6 6 6 6 6 6 6 6 6 6 6 7 7 8 8 8 8 8 8 8 8
9 9 9 9 9 10 10 10 10 9 9 9 8 8 7 7 7 6 6 6 6 6 6 6 6 6 6 6 6 6 6 6 6 6 6 6 6 6 6 6 6 6 6 6 6 6 6 6 6 6 5 6 6 6 6 7 7 7 7 8 8 8 8
8 8 8 8 9 9 9 9 9 9 9 8 8 8 8 7 7 7 7 7 7 6 6 6 6 6 6 6 6 6 6 6 6 6 6 6 7 7 7 7 7 6 6 6 6 6 6 6 6 6 6 5 5 5 5 6 6 7 7 7 7 7 7
7 7 7 7 8 8 8 8 8 8 8 7 7 7 7 7 7 7 7 7 7 7 7 7 7 7 6 6 6 6 6 6 6 6 6 6 6 6 6 6 6 6 6 6 6 6 6 6 6 6 6 6 6 6 6 6 6 6 7 7 7 7 8

ECMWFFLT1_250_rhum_138.txt.gz
RH
100 102 102 103 105 106 106 106 104 103 101 99 98 97 95 93 90 87 84 81 79 77 75 74 74 76 80 83 87 91 94 97 98 99 102 101 98 97 95 90 84 76 75 88 97 92 86 92 104 108 103 98 96 96 97 95 91 88 85 82 83 85 85
66 73 78 83 89 94 99 104 107 108 106 103 101 98 95 94 91 89 87 84 82 81 79 76 74 71 70 70 72 75 79 82 86 91 96 99 99 99 98 96 91 82 78 86 96 97 90 89 98 108 109 107 106 104 103 101 98 94 91 87 87 90 91
39 42 44 47 51 56 62 69 78 87 94 101 105 105 104 104 100 97 96 93 91 90 87 82 78 76 74 71 69 69 70 71 73 77 81 86 89 91 93 94 91 83 79 84 92 95 92 90 95 104 108 110 110 109 107 105 102 99 96 92 90 91 91
35 36 37 37 37 37 38 40 43 48 55 65 75 83 92 100 104 106 107 103 99 98 96 92 88 86 84 81 76 73 71 70 70 70 70 71 73 75 77 79 80 78 77 79 85 89 89 86 87 94 101 103 105 108 109 109 108 107 104 100 96 94 93
35 35 36 37 37 37 37 37 37 37 38 39 42 47 54 62 72 83 93 98 100 99 98 97 95 91 89 86 82 78 77 77 76 74 73 72 71 70 70 69 70 71 71 72 76 80 82 79 77 81 87 89 91 94 97 98 100 99 97 94 93 91 88
32 33 34 35 36 36 36 37 37 37 38 38 38 38 39 40 43 48 55 64 71 76 80 84 86 86 84 80 74 70 71 74 74 73 73 73 73 75 75 74 74 73 73 73 74 76 77 77 75 75 78 79 80 81 82 84 86 87 88 89 89 88 87
31 31 31 32 33 33 34 35 35 35 36 36 37 37 37 39 40 41 42 44 47 50 53 58 62 68 72 72 68 62 60 60 60 60 61 61 62 65 65 65 66 66 67 69 70 72 74 76 77 76 76 76 76 77 76 76 78 80 82 84 86 87 86
33 33 33 33 33 33 33 33 33 34 34 34 35 35 35 35 36 37 39 41 43 45 46 47 48 50 53 56 56 54 52 51 48 46 47 48 49 51 51 48 46 45 45 46 47 50 53 57 61 63 66 68 69 72 74 75 77 77 77 78 80 82 83
31 32 34 35 36 36 36 37 37 36 36 35 35 35 35 35 35 34 35 35 38 40 42 44 45 46 47 47 47 47 47 46 44 41 39 39 40 42 42 40 38 36 35 33 32 32 33 35 36 38 42 46 48 53 58 61 63 64 66 68 71 73 74
24 25 27 29 30 32 33 35 36 37 38 39 39 38 38 38 37 37 36 35 35 36 36 37 39 41 43 44 45 46 46 46 46 44 42 39 38 38 37 37 36 34 34 33 32 31 30 30 30 30 32 34 35 36 38 40 41 44 46 48 50 51 53
21 21 22 22 23 24 25 26 28 29 31 32 33 34 35 37 37 38 38 38 37 36 36 35 35 36 37 39 40 41 42 43 44 44 44 42 41 40 39 37 36 36 35 35 34 33 31 31 31 31 32 33 33 33 33 33 34 35 35 34 35 37 38
20 20 21 21 21 21 21 22 22 23 24 25 26 26 27 29 31 32 33 34 35 36 37 37 36 36 35 34 35 35 36 38 39 39 40 40 40 39 38 37 36 35 35 35 35 34 33 32 32 33 34 34 34 34 34 33 32 32 32 32 32 33 34
16 17 17 18 18 18 18 18 18 18 19 19 20 21 22 25 26 27 28 29 30 31 33 34 36 36 35 34 32 32 32 32 32 33 33 34 34 34 34 34 33 33 32 32 33 32 31 32 32 33 34 34 35 34 33 31 31 30 31 31 31 31 32
13 13 14 14 14 14 14 14 14 15 15 15 16 16 17 19 21 21 22 23 25 26 27 28 30 32 33 33 33 32 31 30 30 29 29 29 30 30 30 31 31 31 31 31 30 30 30 30 31 31 32 32 32 31 30 30 30 30 29 29 29 29 28
11 11 11 12 12 12 12 12 12 13 13 13 13 13 14 16 16 17 17 17 18 19 20 22 23 24 26 27 28 29 29 29 29 29 29 29 30 30 30 30 31 31 31 30 29 27 27 28 29 30 30 30 30 29 29 29 30 29 27 26 26 26 26
10 10 10 10 10 10 10 10 11 11 11 11 11 11 11 12 13 13 13 13 13 14 14 15 16 16 17 18 20 21 22 22 23 24 25 26 27 27 27 27 28 29 28 27 26 25 24 25 26 27 28 28 27 27 27 27 28 27 25 24 24 24 25
9 9 9 9 9 9 9 9 9 9 9 9 9 9 9 10 10 10 10 10 10 11 11 11 11 11 12 12 13 13 14 15 15 16 17 18 19 19 20 21 21 22 22 22 22 22 22 22 23 24 25 25 24 24 24 24 24 23 23 23 22 22 22
10 10 10 9 9 9 9 9 9 9 10 9 9 9 9 9 9 9 9 9 9 10 10 10 10 10 10 11 11 11 11 12 12 13 13 14 15 15 16 17 18 18 19 19 20 20 20 20 20 21 21 21 20 19 19 18 18 18 18 18 16 16 16
10 10 11 10 10 10 10 10 10 10 10 10 9 9 10 10 10 10 9 10 10 10 10 10 10 11 11 12 12 12 13 13 12 13 13 13 14 14 14 14 15 15 15 15 15 15 14 14 14 14 14 14 14 13 13 13 13 13 12 12 12 12 12
11 11 11 11 11 11 11 11 11 11 10 10 10 10 10 11 11 11 11 12 12 12 12 12 12 12 12 12 12 11 11 11 11 10 10 10 10 10 10 10 10 10 10 9 10 9 9 9 9 9 9 9 9 9 9 9 10 10 10 10 10 10 10
11 11 10 10 10 11 11 11 10 10 10 11 11 11 12 12 13 14 15 15 15 13 12 11 11 10 9 9 9 8 8 8 8 8 8 8 8 8 8 9 9 8 8 8 8 8 8 7 7 7 7 7 7 7 7 7 8 8 8 8 8 8 8
12 12 11 11 11 11 11 12 11 11 12 12 13 13 14 14 15 16 15 14 13 11 10 9 8 8 8 7 7 7 7 7 8 8 8 7 7 7 7 7 8 7 7 7 7 7 8 7 7 7 7 7 7 7 7 7 7 7 8 8 8 8 8
12 12 12 13 13 13 13 13 13 13 13 14 14 14 14 14 13 13 12 10 10 9 8 8 7 7 7 7 6 7 7 7 7 7 8 8 7 7 7 7 7 7 7 7 7 7 7 7 7 7 7 7 7 7 7 7 7 7 8 8 8 8 7
11 11 11 12 13 13 14 13 13 13 13 13 12 12 11 11 11 10 9 9 8 8 7 7 7 7 7 7 7 7 7 7 7 7 7 7 7 7 7 7 7 7 7 7 7 7 7 7 7 7 7 7 7 7 7 6 6 7 7 7 8 8 7
10 9 9 10 11 11 11 11 10 10 11 11 11 10 10 9 9 8 8 7 7 7 7 7 7 7 7 7 7 7 7 7 7 7 7 7 7 7 6 6 6 7 6 6 6 6 6 6 6 6 6 6 6 6 6 6 6 6 7 7 8 8 7
10 9 9 9 9 9 9 9 9 9 9 9 9 9 8 7 7 7 6 6 6 6 6 7 7 7 8 8 8 8 8 7 7 7 6 6 6 6 6 6 6 6 6 6 6 6 6 6 6 6 6 6 6 6 6 6 6 6 7 7 7 8 8
9 9 9 9 9 9 8 8 8 8 8 8 8 8 7 7 7 7 6 6 6 7 7 7 7 8 8 8 8 8 8 7 7 6 6 6 6 6 6 6 6 6 6 6 6 6 6 6 6 6 6 6 6 6 6 6 6 6 6 7 7 7 7
8 8 8 8 8 8 8 7 7 7 7 7 7 7 7 7 8 7 7 6 7 7 7 8 8 8 8 8 8 8 8 8 7 7 6 6 6 6 6 5 6 6 5 6 6 6 6 6 6 6 6 6 6 6 6 6 6 6 6 6 7 7 7
7 7 7 7 7 7 7 6 6 6 7 7 7 7 7 7 8 7 7 7 7 8 8 8 8 8 8 8 8 8 8 8 7 7 7 7 6 6 6 6 6 6 6 6 6 6 6 6 6 6 6 6 6 6 6 6 6 6 6 6 6 7 7
7 7 7 7 7 7 7 7 7 7 7 7 7 7 7 7 8 8 8 8 8 8 8 8 8 8 8 8 8 8 8 8 8 8 7 7 7 6 6 6 6 6 6 6 6 6 6 6 6 6 6 6 6 6 6 6 6 6 6 6 6 6 7
8 8 8 7 7 7 7 7 7 7 7 7 7 7 7 7 7 8 8 8 8 8 8 8 8 7 7 7 7 7 7 7 7 8 7 7 7 7 6 6 6 6 6 6 6 6 6 6 6 6 6 6 6 6 7 7 7 6 6 6 6 6 6
8 8 8 8 8 8 7 7 7 7 7 7 7 7 7 7 7 7 7 7 7 7 7 7 7 6 6 6 6 6 6 6 7 7 7 7 7 7 7 7 6 6 6 6 6 6 6 6 6 6 6 7 7 7 7 7 7 7 7 7 6 6 6
7 8 8 8 8 8 8 7 7 8 7 8 8 7 7 7 7 7 7 7 7 6 6 6 6 6 6 6 6 6 6 6 6 6 6 6 7 6 7 7 6 6 6 6 6 6 6 6 6 6 7 7 7 7 7 7 7 7 7 7 7 7 7
8 8 8 9 8 8 9 9 9 9 8 8 8 8 8 7 7 7 7 7 6 6 6 6 6 6 6 6 6 6 6 6 6 6 6 6 7 6 7 7 6 7 6 6 6 6 6 6 6 6 6 7 7 7 7 7 7 8 8 8 8 8 8
8 8 8 9 9 9 9 10 9 9 9 9 9 9 8 8 8 8 7 7 7 7 7 7 7 7 7 7 7 7 7 6 6 6 6 6 6 7 7 7 6 6 6 6 6 6 6 6 6 6 6 6 6 6 6 7 7 7 7 8 8 8 8
9 9 9 9 10 10 10 10 10 9 9 9 9 9 9 9 9 8 8 8 8 8 8 8 8 8 7 7 7 7 7 6 6 6 6 6 6 6 6 6 6 6 6 6 6 6 6 6 6 6 6 6 6 6 6 6 6 6 6 7 7 7 8

ECMWFFLT1_250_rhum_141.txt.gz
RH
89 96 101 103 103 102 99 98 99 99 99 100 101 102 104 105 106 105 104 103 102 102 100 98 96 95 94 94 94 94 93 92 91 91 92 92 91 87 82 76 71 66 67 74 80 81 82 79 75 75 80 88 94 95 93 88 81 77 77 76 73 72 73
52 62 73 84 93 99 102 103 102 101 100 100 100 98 99 101 104 105 106 106 105 104 104 103 103 103 101 98 96 94 93 91 90 90 92 94 95 94 92 87 81 75 72 75 79 81 80 78 76 73 73 81 92 100 100 96 89 82 78 76 75 74 73
30 33 38 46 56 66 76 85 91 95 99 101 100 98 96 96 97 98 101 103 103 104 106 106 106 108 108 107 106 104 103 101 97 94 93 94 94 94 94 92 88 82 78 78 81 82 80 78 77 75 72 72 82 97 105 106 104 98 91 84 81 81 81
30 29 29 29 32 36 41 48 56 64 71 78 82 85 88 89 91 92 95 98 98 100 102 102 104 107 107 108 109 108 107 107 106 104 103 100 97 95 95 94 92 89 86 85 86 87 85 82 79 78 77 73 74 85 97 106 111 111 107 100 92 89 90
32 32 31 31 30 30 30 31 33 36 41 45 50 54 59 63 67 72 77 83 87 91 93 94 97 101 103 104 107 108 109 108 108 109 110 107 102 98 96 93 90 88 87 87 89 92 93 90 86 82 80 78 75 76 82 92 105 114 115 110 102 98 97
32 32 33 33 33 32 32 32 32 31 32 33 34 36 38 39 41 43 46 50 55 60 65 68 72 77 81 85 89 94 100 104 106 109 112 111 108 105 103 100 95 89 84 81 81 84 89 91 91 88 85 82 80 77 76 79 89 103 111 110 107 107 105
29 30 31 32 33 33 33 33 33 33 33 33 33 33 33 34 35 35 35 36 36 37 39 41 43 46 49 52 55 58 63 70 76 81 86 91 95 98 99 101 100 96 94 90 84 82 84 86 87 86 85 85 84 82 81 80 82 90 99 103 103 105 105
22 25 27 29 31 33 34 34 34 34 34 33 33 33 33 34 34 34 35 35 36 36 36 36 36 37 37 38 38 39 39 41 44 46 49 52 57 62 66 69 71 74 78 79 79 78 80 83 83 79 77 77 78 79 80 81 83 86 91 96 97 96 95
16 17 19 21 24 27 29 32 34 35 35 35 35 34 34 34 34 34 34 35 35 36 36 36 36 37 37 36 36 36 36 37 37 37 37 38 39 40 41 42 43 44 47 48 50 52 55 60 62 61 60 60 61 62 63 64 66 70 75 83 90 93 92
13 14 14 15 16 18 20 23 26 29 32 34 35 36 36 36 35 35 35 35 35 36 35 35 35 35 35 35 36 37 37 37 37 37 37 37 37 38 37 38 37 37 38 38 38 38 39 40 41 42 44 44 43 42 42 41 42 44 47 53 61 70 76
14 15 15 15 15 15 15 16 17 19 21 23 26 29 31 34 36 38 38 38 38 37 36 35 35 34 34 34 35 35 36 36 37 37 37 36 36 37 37 37 37 37 37 37 37 38 38 39 40 40 42 43 41 38 36 33 31 30 30 32 37 43 48
14 15 15 16 16 17 17 17 17 17 18 18 18 19 21 24 28 31 34 36 36 36 36 37 37 37 37 36 36 36 36 36 36 35 36 36 36 36 37 37 37 36 36 36 36 36 36 37 39 41 44 45 45 43 41 37 32 29 28 29 31 33 35
10 11 12 12 13 14 15 16 16 17 18 19 19 19 19 21 22 24 25 26 27 29 31 34 35 36 37 36 36 37 36 36 37 37 37 37 37 38 39 40 40 40 39 39 38 37 37 37 38 39 42 43 44 43 40 37 34 31 30 31 32 33 32
8 8 9 9 10 10 11 11 12 13 14 15 17 18 19 22 23 24 23 23 23 24 26 27 29 30 31 32 33 33 34 34 34 34 34 35 35 37 37 38 39 39 38 38 38 37 38 39 41 42 42 43 45 43 40 36 33 31 29 28 29 29 29
7 8 8 8 8 8 8 9 9 9 10 10 11 12 14 16 18 20 21 22 23 25 26 27 27 27 28 29 30 30 30 30 30 30 31 31 31 32 33 33 33 33 32 32 31 31 31 33 36 38 38 39 41 40 38 35 33 30 28 26 24 24 25
7 7 8 8 8 8 8 8 9 9 9 9 9 10 10 10 11 13 14 15 17 19 22 23 24 24 25 26 27 27 27 27 28 28 29 30 31 31 32 32 32 32 31 30 28 27 26 25 27 28 30 30 31 32 31 29 29 27 26 25 24 23 24
7 7 7 7 8 8 8 8 9 9 9 9 10 10 10 10 10 11 11 11 12 13 14 14 15 16 17 18 19 20 20 20 21 22 24 25 27 27 28 28 27 27 27 26 25 24 23 23 22 23 24 24 25 25 25 24 23 23 23 24 24 23 24
7 7 7 7 7 8 8 8 9 9 9 10 10 11 11 11 11 12 12 12 12 11 11 11 11 11 11 12 13 13 13 14 14 15 16 17 18 18 18 18 18 19 20 20 19 19 19 19 19 19 20 20 21 22 22 21 20 19 20 21 20 20 21
7 7 7 7 7 7 8 8 8 8 9 9 10 10 11 12 13 13 13 13 12 12 11 11 11 10 11 11 11 11 11 12 12 12 13 14 14 13 13 13 14 15 15 15 14 15 15 15 15 16 17 17 17 18 19 18 17 17 17 17 16 16 17
6 6 6 7 7 7 7 8 8 8 8 8 9 10 10 11 12 13 13 13 12 12 12 12 11 11 11 11 11 11 11 11 11 11 12 12 12 12 12 13 14 14 14 13 13 13 13 13 13 13 13 13 14 14 14 14 14 13 14 15 15 15 15
6 6 6 6 7 7 7 8 8 8 8 8 9 9 9 11 12 13 12 12 12 12 12 11 11 11 11 11 10 10 10 10 10 10 11 11 11 11 12 12 13 12 12 12 12 12 12 12 11 11 11 11 12 12 12 13 12 12 12 13 14 14 15
5 5 6 6 6 7 7 8 8 8 9 9 9 9 9 10 12 12 12 12 13 13 12 11 11 11 10 10 9 9 9 9 10 10 10 10 10 10 11 11 12 12 12 13 13 13 13 13 13 13 13 13 13 13 13 14 14 13 13 14 15 15 15
5 5 6 6 6 7 7 7 8 8 9 9 9 9 9 10 11 11 11 12 14 13 13 12 12 11 11 10 10 10 10 10 11 11 11 11 11 12 12 12 12 12 13 13 13 13 13 13 14 14 13 12 12 12 12 12 12 12 11 11 11 12 12
6 6 5 6 6 6 7 7 8 9 9 9 9 9 9 10 11 10 10 12 13 13 13 13 12 12 12 11 11 11 11 11 11 11 11 11 11 11 11 11 11 11 11 11 10 10 10 10 10 10 10 10 9 9 9 9 9 8 8 8 8 9 9
6 6 6 6 6 6 6 7 7 8 9 9 9 9 9 10 10 10 9 10 11 11 11 11 11 11 11 11 11 10 10 10 10 9 9 9 9 9 9 9 9 9 9 8 8 8 8 8 8 7 7 7 7 8 8 8 8 8 8 8 8 8 8
6 6 6 6 6 6 6 6 7 7 8 8 8 8 8 9 9 9 9 10 10 10 10 10 11 11 11 11 10 10 10 9 9 9 8 8 8 8 8 8 7 7 7 7 7 7 7 7 7 7 7 7 7 7 7 7 7 7 7 8 8 7 8
6 6 6 6 6 6 6 6 7 7 7 8 8 7 8 8 8 8 8 9 9 9 9 9 9 9 9 9 9 9 9 8 8 8 8 7 7 7 7 7 7 7 7 7 7 7 7 7 7 7 8 8 7 7 8 8 7 7 7 7 7 7 7
6 6 6 6 6 6 6 7 7 7 7 7 7 7 8 8 7 7 7 8 7 8 8 8 8 8 8 8 8 8 8 8 8 7 7 7 7 7 7 7 7 7 7 7 7 7 7 8 8 8 8 8 8 8 8 8 8 7 7 7 7 7 7
6 6 6 6 6 6 7 7 7 7 8 8 8 8 8 8 8 7 7 7 7 7 7 7 7 8 8 8 8 8 8 8 8 7 7 7 7 7 7 7 7 7 7 7 7 7 8 8 8 8 8 8 8 8 8 8 8 7 7 7 7 6 6
7 7 7 7 7 7 7 7 8 8 8 8 8 8 8 8 8 8 8 8 8 8 9 9 9 9 9 9 9 8 8 8 8 8 8 7 7 8 7 7 7 7 7 7 7 7 7 7 7 7 8 8 8 8 8 7 7 7 7 7 7 6 6
7 7 7 7 7 7 7 7 8 8 8 8 8 9 9 9 9 9 9 9 9 9 9 9 9 9 9 9 9 9 9 9 9 9 9 9 9 8 8 8 8 7 7 7 6 6 6 6 6 7 7 7 7 7 7 7 7 7 6 6 6 6 6
7 7 7 7 7 7 7 8 8 8 8 8 8 9 9 9 9 9 9 9 9 9 9 9 9 9 9 9 9 9 9 9 9 9 9 9 9 9 9 9 9 8 8 8 7 7 7 6 6 6 6 6 6 6 6 7 7 7 7 6 6 6 6
7 7 7 7 7 7 8 8 8 8 8 9 9 9 9 9 9 9 9 9 9 9 9 9 9 9 9 9 9 9 9 9 9 9 9 8 9 8 8 8 8 8 8 8 8 8 8 7 7 7 6 6 6 6 6 6 6 6 6 6 6 6 6
8 8 8 8 8 8 8 8 9 9 9 9 9 8 8 8 9 9 9 9 9 9 9 9 9 9 9 9 8 8 8 8 8 8 8 7 7 7 7 7 7 8 8 8 8 8 8 8 8 7 7 7 7 6 6 6 7 6 6 6 7 7 7
8 9 9 9 9 9 9 9 9 9 9 9 9 9 9 9 9 9 9 9 9 9 9 9 9 9 8 8 8 8 7 7 7 7 7 7 7 7 7 7 7 7 7 7 7 7 7 8 8 7 8 7 7 7 7 6 6 6 6 6 7 7 7
9 9 9 10 10 10 10 10 9 9 10 10 10 10 10 10 10 9 9 9 9 9 9 9 9 8 8 8 8 8 8 8 8 7 7 7 7 7 7 7 7 7 6 6 6 6 7 7 7 7 7 7 7 7 7 6 6 6 6 6 6 6 7

ECMWFFLT1_250_rhum_144.txt.gz
RH
28 30 34 38 44 52 60 67 73 74 74 74 75 77 80 84 88 94 100 104 105 105 103 101 100 98 94 91 89 87 82 78 76 75 77 80 83 86 88 88 86 81 81 85 88 86 83 79 75 72 73 77 82 86 90 92 91 89 86 82 79 76 76
27 27 27 27 29 31 34 39 46 53 59 64 68 71 74 78 81 85 90 95 101 104 105 104 104 105 103 100 97 95 92 90 86 82 80 78 78 79 82 84 85 84 84 88 92 94 91 86 81 75 72 72 75 79 84 89 91 91 89 87 85 81 78
30 30 30 30 29 29 30 30 31 33 36 41 45 50 56 62 69 75 81 87 92 95 99 101 101 104 106 106 103 100 99 98 95 93 91 89 85 81 79 78 79 79 81 85 90 94 96 94 92 89 86 82 78 78 83 88 93 96 96 93 91 89 85
28 30 31 32 31 31 32 32 32 33 32 32 33 33 36 39 44 51 59 67 75 81 87 92 96 100 102 103 102 102 103 103 101 99 99 99 97 93 88 83 79 76 77 80 86 91 94 94 94 95 96 95 91 88 88 91 95 101 104 104 101 100 98
26 28 29 30 31 31 31 31 32 33 34 34 34 34 34 33 32 33 35 40 46 54 61 70 80 88 95 99 101 101 102 101 99 99 101 103 104 103 101 95 89 83 78 77 82 88 93 95 93 93 95 96 96 94 93 94 96 100 105 109 110 109 108
22 25 27 28 30 31 31 32 31 31 31 32 34 35 36 36 35 34 32 32 31 33 36 41 49 58 69 79 88 94 98 100 98 97 98 100 101 103 104 102 99 96 90 85 83 85 89 94 94 92 93 95 96 95 93 92 93 95 99 104 108 110 111
16 18 20 22 25 27 29 31 32 33 33 33 32 32 33 34 35 36 36 36 35 33 31 31 31 34 39 46 55 64 74 81 85 88 89 89 89 90 92 92 94 97 97 94 93 94 96 100 100 97 96 97 100 101 98 95 95 95 95 97 101 104 107
13 14 15 17 18 20 22 24 27 29 31 33 33 33 33 33 33 34 35 36 37 37 37 35 33 32 31 32 34 37 42 48 53 58 63 66 69 71 73 75 78 82 85 87 91 96 101 106 108 106 103 101 102 105 105 102 101 99 95 94 96 98 102
9 10 11 13 14 16 17 19 20 22 24 26 29 30 32 33 33 33 34 34 36 37 38 38 38 37 36 34 33 32 31 32 33 35 39 43 47 51 54 56 58 60 64 66 69 75 82 89 97 100 102 103 103 105 107 106 105 104 99 96 96 95 96
7 7 8 8 9 11 12 14 16 18 19 20 22 23 25 27 29 31 32 34 35 35 35 36 36 37 37 37 37 36 35 34 33 32 32 33 34 36 38 39 40 41 43 45 47 49 53 60 67 74 80 85 87 89 93 96 97 97 94 92 92 92 93
6 6 6 7 7 7 8 9 10 11 13 15 17 19 20 22 23 25 28 29 31 31 31 32 32 33 35 37 38 39 38 38 37 36 36 35 34 34 33 33 34 34 34 34 34 35 36 39 43 47 51 55 56 57 60 62 64 65 65 64 66 69 73
6 6 6 6 6 6 6 7 7 7 8 9 11 12 15 17 20 22 24 24 25 25 26 27 29 31 32 33 35 36 37 38 38 38 38 38 37 37 37 37 36 36 35 34 33 33 32 33 34 35 38 39 39 39 39 39 39 40 41 41 41 42 44
6 6 6 6 6 6 6 6 6 7 7 7 7 8 9 11 13 16 19 21 22 22 23 25 26 26 27 27 28 30 32 33 35 36 37 38 38 39 39 39 39 39 39 38 37 36 35 35 36 36 37 38 38 37 36 35 35 34 35 35 34 34 35
6 6 6 6 6 6 6 6 6 7 7 7 7 7 7 8 9 10 12 15 18 20 22 24 25 25 25 24 24 24 25 26 27 28 30 32 35 37 39 40 40 40 40 40 39 39 39 38 39 39 39 40 40 39 37 36 35 33 33 33 32 32 34
6 6 6 6 6 6 6 7 7 7 7 7 7 7 7 7 7 8 9 10 12 15 18 21 22 24 24 24 24 24 23 24 23 23 24 24 26 28 30 32 34 34 34 35 36 38 39 40 41 41 41 42 42 41 40 37 36 34 33 32 32 32 33
6 6 6 6 6 6 6 6 7 7 7 7 7 7 7 7 7 8 8 8 9 10 12 14 16 18 20 21 22 23 24 25 25 25 26 26 25 25 25 25 25 24 24 25 26 28 29 32 35 37 39 41 42 43 42 39 37 36 34 33 32 31 32
6 6 6 6 6 6 6 6 6 7 7 7 7 7 7 7 7 7 8 8 8 8 9 10 11 12 13 14 16 17 18 20 21 23 24 25 26 27 27 26 25 24 24 24 24 23 22 22 24 25 28 30 33 35 36 35 34 33 31 30 29 28 29
6 6 6 6 6 6 6 6 6 7 7 7 7 7 8 8 8 8 8 8 8 8 8 9 9 10 11 11 11 12 12 13 13 14 16 17 19 21 22 22 22 23 25 25 24 23 22 22 22 22 23 24 25 26 26 26 26 25 25 24 23 22 23
5 6 6 6 6 6 6 7 6 7 7 7 7 7 7 8 8 8 8 8 8 9 9 9 9 10 10 10 10 10 10 10 11 11 11 12 13 13 14 14 15 16 18 18 18 17 18 20 20 21 22 22 23 23 23 22 21 20 20 21 20 20 20
5 6 6 6 6 6 6 6 6 6 7 6 7 7 7 8 8 7 8 8 8 9 10 10 10 10 10 10 10 10 10 10 10 11 11 12 12 12 12 11 11 12 12 12 12 12 13 13 14 15 16 16 17 18 19 19 18 18 18 19 19 18 18
5 5 5 5 6 6 6 6 6 6 6 6 6 7 7 7 7 7 7 8 8 9 9 10 10 10 10 10 10 10 10 10 10 10 11 11 11 11 12 12 12 12 12 12 12 11 11 11 11 11 11 12 12 13 13 13 13 13 13 14 14 13 13
5 5 5 5 5 5 5 5 6 6 6 6 6 6 7 7 6 6 7 7 8 8 8 9 9 9 9 10 10 10 10 10 10 10 10 10 10 10 11 11 12 12 12 12 13 12 12 12 11 11 11 11 11 11 11 10 10 10 10 9 9 9 9
5 5 5 5 5 5 5 5 6 6 6 6 6 6 6 6 6 6 6 7 7 7 7 8 8 8 9 9 9 9 9 9 9 9 9 9 9 10 10 11 12 12 13 13 13 13 13 12 12 12 11 11 11 10 10 10 10 10 9 9 9 8 8
6 5 5 6 6 6 6 6 6 6 6 6 6 6 6 6 6 6 6 6 7 7 7 7 7 8 8 8 8 9 9 9 9 9 9 9 9 10 10 10 11 12 13 14 14 14 13 13 12 12 11 11 11 10 10 10 10 10 9 9 9 8 8
6 6 6 6 6 6 6 6 6 6 6 6 6 6 6 7 7 7 7 7 7 7 7 7 7 7 7 7 8 8 8 8 9 9 9 9 9 9 9 10 11 11 12 13 13 13 14 13 13 13 12 12 12 11 11 11 11 11 10 10 10 9 9
6 6 6 7 7 7 7 7 6 6 6 6 6 6 7 7 7 7 7 7 7 7 7 7 7 7 7 7 7 7 8 8 8 8 9 9 9 9 9 9 10 10 10 11 11 11 12 12 12 12 11 11 11 11 11 11 11 11 11 10 10 10 10
6 7 7 7 7 7 7 7 7 7 7 7 7 7 7 7 7 7 7 7 7 7 7 7 7 7 7 7 7 7 7 7 7 8 8 8 8 8 8 8 9 9 9 9 9 10 10 10 10 10 10 9 9 9 9 8 8 8 9 8 8 8 8
7 7 7 7 7 7 8 7 7 8 7 7 7 7 7 7 7 7 7 7 7 7 7 8 8 7 7 7 7 7 7 7 7 7 7 7 7 7 7 7 7 7 7 7 7 8 8 8 8 8 8 8 8 7 7 7 6 6 6 6 6 6 6
7 7 7 7 7 8 8 8 8 8 8 8 7 7 7 7 7 8 7 7 8 7 7 7 7 7 8 8 8 8 8 8 8 7 7 7 7 7 7 7 7 7 7 7 7 7 7 7 7 7 7 7 7 7 7 7 6 6 6 6 5 5 5
7 7 7 7 8 8 8 8 8 8 8 8 8 7 7 7 7 7 7 7 8 7 7 8 8 8 8 8 8 8 8 8 8 8 8 8 7 7 7 7 7 7 7 7 7 7 7 7 7 7 7 7 7 7 7 7 7 6 6 6 6 6 6
7 7 7 8 8 8 8 8 8 8 8 8 8 7 7 7 7 8 8 8 8 8 8 8 8 8 8 8 8 8 8 8 8 8 8 8 8 8 8 7 7 7 7 7 7 7 7 7 7 7 7 7 7 7 7 7 7 7 7 7 6 7 7
7 8 8 8 8 8 8 8 8 8 8 8 8 8 8 8 8 8 8 8 8 8 8 8 8 8 8 8 8 8 8 8 8 8 8 8 8 8 8 8 8 8 7 7 7 7 7 7 6 7 7 6 6 7 7 7 7 7 6 7 6 7 7
8 8 8 8 8 8 8 8 8 8 8 8 8 8 8 8 8 8 8 8 8 8 8 8 8 8 9 8 9 9 9 9 9 9 9 9 9 9 9 8 8 8 8 8 8 7 7 7 7 7 7 6 6 6 6 6 6 6 6 6 6 6 6
8 8 9 9 9 9 8 8 8 8 8 9 9 9 9 9 9 9 9 9 9 9 9 10 9 9 10 9 9 10 10 10 10 10 10 10 9 9 9 9 9 9 8 8 8 8 8 8 7 7 7 7 6 6 6 6 6 5 5 5 5 5 6
8 8 9 9 9 9 9 9 9 9 9 9 9 10 10 10 10 10 10 10 10 10 10 10 10 10 10 10 10 10 10 10 10 10 10 9 9 9 9 9 8 8 8 8 8 8 8 8 8 8 8 7 7 7 7 7 7 6 6 6 5 5 6
9 9 9 9 9 10 9 9 9 9 9 10 10 11 11 11 11 11 11 11 11 11 11 11 11 10 10 10 10 10 10 10 10 9 9 9 9 8 8 8 8 8 8 8 8 8 8 8 8 8 8 7 7 7 7 7 7 7 6 6 6 5 5

ECMWFFLT1_250_rhum_150.txt.gz
RH
11 12 13 13 14 15 15 16 16 17 18 19 20 22 25 27 29 33 37 41 43 42 40 38 35 33 33 35 40 45 51 56 60 62 63 63 64 65 65 64 64 64 69 78 83 87 90 92 94 98 103 106 107 110 111 106 102 98 88 82 80 76 73
9 10 11 11 12 13 14 14 15 14 15 16 17 18 20 22 24 26 27 30 34 36 38 40 40 39 36 34 35 37 40 45 50 54 58 61 61 62 62 61 62 62 66 74 80 85 88 88 89 92 97 103 107 109 109 107 109 111 103 95 92 87 80
7 7 8 9 10 11 12 13 14 14 14 13 14 15 16 17 19 21 23 24 26 27 29 31 34 38 40 40 40 39 38 40 42 45 49 54 56 59 60 59 58 58 61 69 75 81 85 87 88 89 90 95 100 105 108 109 109 110 108 106 105 100 92
5 5 6 6 7 8 9 10 12 13 14 14 13 13 14 15 15 16 18 20 22 24 25 25 26 28 31 35 39 41 43 43 43 43 43 45 48 51 53 54 54 55 56 60 67 73 78 82 85 86 87 89 93 97 102 107 110 110 109 109 109 108 104
4 4 4 4 5 5 6 7 8 10 11 12 13 14 14 14 14 14 14 15 17 19 21 23 24 25 26 27 30 32 36 39 42 44 44 45 45 46 48 50 50 51 51 54 60 64 69 73 77 79 82 84 87 89 91 97 103 108 110 109 110 109 104
4 4 4 4 4 4 5 5 5 6 8 9 10 12 13 14 14 14 13 14 14 15 16 18 20 22 24 26 27 27 27 29 31 35 38 42 44 46 48 50 51 52 52 53 56 59 63 67 70 74 77 79 81 81 82 85 90 96 101 105 108 108 105
4 4 4 4 4 4 4 5 5 5 5 6 7 8 10 11 12 13 13 13 14 14 15 16 16 17 19 22 25 26 26 26 26 27 29 31 35 38 43 47 51 54 57 58 59 60 62 65 67 69 72 74 76 78 79 80 82 86 89 94 101 105 108
4 4 4 4 4 4 4 4 5 5 5 5 5 6 7 8 9 10 11 12 13 14 15 16 16 16 17 18 19 21 24 26 27 27 27 27 27 29 31 35 39 44 49 54 58 61 63 66 69 70 71 70 71 73 75 76 78 82 85 88 91 95 101
4 4 4 4 4 4 4 4 4 4 5 5 5 5 5 6 7 8 9 10 11 12 13 14 15 16 17 17 17 18 19 21 23 25 27 27 28 27 27 27 27 29 33 38 44 50 55 61 66 69 71 73 75 75 75 73 74 78 83 85 86 88 91
4 4 4 4 4 4 4 4 4 4 4 4 5 5 5 5 6 6 7 8 9 10 10 11 13 14 16 17 17 18 18 18 19 20 22 24 27 28 29 29 28 27 26 27 30 34 38 44 50 52 56 63 70 75 80 80 79 79 81 82 83 83 85
5 5 5 5 5 5 4 4 4 4 4 4 4 5 5 5 5 6 6 6 7 8 8 9 10 11 13 14 15 16 17 17 18 18 19 20 23 25 27 29 31 31 31 29 28 27 27 28 31 33 36 40 46 53 61 69 73 76 80 82 85 87 89
5 5 5 5 5 5 5 5 5 5 5 4 4 4 4 5 5 6 6 6 6 7 7 8 8 9 10 10 12 13 14 16 17 18 20 20 21 22 23 25 27 30 32 33 33 31 29 27 25 25 25 26 28 32 37 43 49 55 60 67 74 82 91
4 5 5 5 5 5 5 5 5 5 5 5 5 5 5 5 5 6 6 6 6 6 6 7 7 8 9 9 9 9 10 12 13 15 17 19 20 21 21 22 23 25 27 29 31 32 33 32 31 29 27 25 24 25 26 28 32 35 37 41 46 54 65
4 4 4 4 4 5 5 5 5 5 5 6 5 5 5 6 6 6 6 5 5 6 6 7 7 7 7 7 7 8 8 8 10 11 14 16 18 19 20 20 21 22 23 24 26 27 29 30 32 33 32 31 29 28 27 26 27 27 28 30 31 34 39
3 3 4 4 4 4 4 4 5 5 5 5 5 5 6 6 6 6 6 6 6 6 6 6 7 7 6 7 7 7 7 8 8 10 11 12 14 15 15 16 17 18 20 21 22 23 24 25 27 28 30 32 33 34 34 32 31 30 28 29 30 31 34
3 3 3 3 4 4 4 4 4 4 4 4 5 5 5 6 6 6 6 7 6 7 7 7 6 6 6 6 7 7 7 8 8 9 9 10 10 11 11 11 13 14 15 17 18 19 20 22 23 24 26 27 29 32 33 33 32 32 31 31 32 33 35
3 3 3 4 4 4 4 4 4 4 4 4 4 5 5 5 6 6 7 7 7 7 7 7 6 6 6 6 6 7 7 8 9 9 9 8 8 9 9 9 10 10 11 12 13 14 16 17 19 21 21 22 24 26 28 28 28 28 29 30 31 33 35
3 3 3 3 3 4 4 4 4 4 4 4 4 5 5 5 5 6 6 6 7 7 7 8 7 7 7 7 7 7 7 8 9 9 8 8 8 9 9 9 9 9 9 10 10 11 12 13 14 15 15 16 18 20 22 23 23 22 23 26 27 29 31
3 3 3 3 3 3 4 4 4 4 4 4 5 5 5 4 4 5 6 6 7 7 7 8 8 7 7 7 7 8 8 9 9 8 8 8 8 9 9 9 9 9 9 9 10 10 10 10 11 11 11 11 12 13 14 16 17 17 18 20 22 23 25
3 3 3 3 3 3 4 4 4 4 4 5 5 5 5 5 5 5 6 6 7 7 7 7 7 7 7 8 8 8 9 9 9 9 9 9 9 9 9 9 9 9 9 9 9 9 9 9 9 10 10 10 10 10 11 11 11 11 12 14 15 16 17
3 3 3 3 3 3 4 4 4 4 5 5 5 5 5 5 6 6 6 6 6 6 7 7 7 7 7 8 8 8 9 10 10 9 9 9 9 9 9 9 9 9 9 9 9 10 10 10 10 10 9 9 9 9 9 10 10 9 9 9 10 11 11
3 3 3 3 4 4 4 4 4 4 5 5 5 5 5 6 7 6 6 6 6 6 7 7 7 7 7 8 8 8 9 9 10 10 10 10 10 9 9 9 9 9 9 9 9 9 9 9 9 9 9 9 9 9 9 9 9 9 9 9 9 9 9
3 3 4 4 4 4 4 4 4 4 5 5 5 5 6 6 7 7 6 7 7 7 7 7 7 7 8 8 8 8 9 9 10 10 10 10 10 10 10 10 9 9 9 9 9 9 9 9 9 9 9 9 9 9 9 9 9 9 8 9 9 9 9
3 3 4 4 4 4 4 4 5 5 5 5 5 5 6 6 6 7 7 7 7 7 7 8 8 8 8 8 8 9 9 9 10 10 10 10 10 11 11 10 10 10 10 10 9 9 9 9 9 9 9 9 9 9 9 9 9 9 9 8 8 8 8
4 4 4 4 4 4 4 5 5 5 6 6 5 6 6 6 7 7 7 7 7 7 8 8 8 8 8 9 9 9 9 9 9 10 10 10 11 11 11 11 11 11 11 10 10 10 9 9 9 9 9 9 9 9 9 9 9 9 9 9 9 8 8
4 4 4 4 5 5 5 5 6 6 6 6 6 6 6 6 7 7 7 7 7 7 8 8 8 9 9 9 9 9 9 9 9 9 10 10 10 10 11 11 11 11 11 11 11 10 10 10 9 9 9 8 8 8 8 8 8 8 8 8 8 8 8
4 4 4 5 5 5 5 6 6 6 6 6 6 6 6 7 7 7 7 7 7 7 8 8 8 9 9 9 9 9 9 9 9 9 9 9 9 9 9 10 10 10 10 10 10 10 10 9 9 9 8 8 8 8 7 7 7 7 7 6 7 7 6
4 5 5 5 5 6 6 6 6 6 6 6 6 6 6 7 7 7 7 7 7 7 8 8 8 8 8 9 9 9 9 9 9 9 9 8 8 8 8 8 8 9 9 8 8 9 8 8 8 8 7 7 7 7 7 7 6 6 6 5 5 6 5
5 5 5 5 6 6 6 6 6 6 6 6 6 6 7 7 7 7 7 8 8 8 8 8 8 8 9 9 9 9 9 9 9 9 9 9 9 9 9 9 9 8 9 8 8 8 8 8 8 8 7 7 7 7 7 7 6 6 6 6 5 5 5
5 5 6 6 6 6 6 6 6 7 7 7 7 7 7 7 7 7 8 8 8 8 8 8 8 8 9 9 9 9 9 9 9 9 9 9 9 9 9 9 9 9 9 9 9 9 9 9 9 8 8 8 7 7 7 7 7 6 6 6 6 5 5
6 6 6 6 6 7 7 7 7 7 7 7 7 7 7 7 7 7 8 8 8 8 8 8 8 8 9 9 9 9 9 9 9 9 9 9 9 9 9 9 9 9 9 9 9 9 9 9 9 8 8 8 7 7 7 7 7 6 6 6 6 5 5
6 6 7 7 7 7 7 7 7 8 8 8 8 7 7 8 8 8 8 8 8 8 8 8 8 8 9 9 9 9 9 9 9 9 9 9 9 9 9 9 9 9 9 9 9 9 9 9 9 8 8 8 8 7 7 7 7 6 6 6 6 6 6
7 7 7 7 7 8 8 8 8 8 8 8 8 8 8 8 8 8 8 8 9 9 8 9 9 9 9 9 9 9 9 9 9 9 9 9 9 9 9 9 9 10 10 9 9 9 9 9 9 8 8 8 8 7 7 7 7 7 6 7 7 6 6
7 7 7 7 7 8 8 8 8 8 8 9 9 9 9 9 9 9 9 9 9 9 9 9 9 9 9 9 9 10 10 10 10 10 10 10 10 10 10 10 10 10 10 9 9 9 9 9 9 8 8 8 8 8 8 8 7 7 7 7 7 7 7
7 7 7 7 8 8 8 9 9 9 9 9 9 9 10 10 10 10 10 10 10 10 10 10 10 10 10 10 9 9 10 10 10 10 10 10 10 10 10 10 10 10 10 10 10 10 10 9 10 9 9 9 9 9 9 9 8 8 8 8 8 7 7
8 8 8 8 8 8 9 9 9 10 10 10 10 10 10 11 11 11 11 11 11 11 11 11 11 11 10 10 10 10 10 11 11 11 11 11 11 11 11 11 11 11 11 11 11 11 11 11 11 10 10 10 10 9 9 9 8 8 8 8 8 7 7

ECMWFFLT1_250_rhum_156.txt.gz
RH
4 4 4 4 4 4 4 4 4 4 4 5 5 6 6 7 7 8 8 8 8 9 11 13 14 16 17 18 20 21 22 23 23 24 26 27 30 33 38 42 46 51 62 78 90 96 100 102 105 106 106 106 106 103 99 93 91 94 98 101 104 104 106
3 4 4 4 4 4 4 4 4 4 4 4 4 4 5 5 6 6 7 8 8 8 8 9 11 13 14 15 17 18 19 20 21 22 23 24 25 26 27 30 35 39 48 63 78 88 94 98 102 105 106 108 110 109 106 99 94 91 93 99 105 108 109
3 3 3 3 4 4 4 4 4 4 4 4 4 4 4 4 4 5 5 6 7 7 7 7 8 9 11 12 13 14 16 17 19 20 21 22 23 24 25 25 27 29 33 44 58 73 85 92 97 101 103 106 109 107 104 103 102 97 92 95 101 106 108
3 3 3 3 3 3 3 4 4 4 4 4 4 4 4 4 4 4 5 5 5 6 6 6 7 7 8 10 11 12 13 14 16 17 18 20 21 22 23 24 25 25 26 30 39 51 66 79 87 93 96 100 104 104 101 101 103 103 98 96 99 104 105
4 4 3 4 4 4 4 4 3 4 3 3 3 3 4 4 4 4 4 4 5 5 5 5 6 6 6 7 8 10 11 11 13 14 15 17 18 19 21 22 23 24 23 25 29 36 46 58 68 75 81 87 94 99 101 101 102 104 102 99 99 102 105
4 4 4 4 4 4 4 4 4 4 4 3 3 3 3 3 4 4 4 4 4 4 5 5 5 6 6 6 6 7 8 10 10 11 12 13 15 16 18 20 21 22 22 23 25 29 34 42 49 53 58 66 77 87 95 99 101 102 101 101 101 102 105
4 4 4 4 4 4 4 4 4 4 4 4 4 4 4 4 3 4 4 4 4 4 4 5 5 5 5 5 5 6 6 7 8 9 10 11 12 13 15 17 18 19 20 22 23 25 29 33 38 41 43 47 55 66 77 86 93 97 98 98 100 101 104
3 3 3 3 3 3 3 3 3 4 4 4 4 4 4 4 4 4 4 4 4 4 4 4 4 5 5 5 5 5 5 6 6 7 8 9 10 11 12 13 15 16 18 19 21 23 26 29 31 35 37 39 42 48 56 63 72 82 88 91 94 96 98
3 3 3 3 3 3 3 3 3 3 3 3 4 4 4 4 4 4 4 4 4 4 4 4 4 4 4 5 5 5 6 6 6 6 6 7 8 9 10 11 11 13 15 17 19 20 22 25 28 30 32 35 37 40 44 48 54 62 69 74 79 82 83
3 3 3 3 3 3 3 3 3 3 3 3 3 3 3 4 4 4 4 5 5 5 4 4 4 4 4 4 4 5 5 6 6 6 6 6 7 7 8 9 10 11 11 13 15 17 19 20 23 26 28 31 33 35 38 41 45 50 54 57 62 65 65
3 3 3 3 3 4 3 3 4 3 3 3 3 3 3 3 3 4 4 4 4 5 5 5 4 4 4 4 4 4 5 5 6 6 6 6 6 6 7 7 8 9 10 11 12 13 14 17 19 21 24 27 29 31 35 37 40 43 46 48 51 53 54
3 3 3 3 3 3 3 3 3 3 3 3 3 3 3 3 3 3 3 4 4 4 4 5 5 5 5 5 4 4 4 5 5 6 6 6 6 6 7 7 7 8 8 9 10 11 11 13 15 17 20 22 25 28 31 35 38 40 42 43 44 46 47
3 3 3 3 3 3 3 3 3 3 3 3 3 3 3 3 4 4 3 3 3 4 4 4 4 4 4 5 5 5 5 5 5 5 5 6 6 6 6 7 7 7 7 8 8 9 9 10 12 14 17 19 22 25 27 30 34 36 38 40 41 42 43
3 3 3 3 3 4 3 3 3 3 3 3 3 3 3 4 4 4 4 4 4 3 3 3 3 3 4 4 5 5 5 5 6 6 5 5 5 6 6 6 7 6 6 7 7 7 8 9 10 11 13 16 19 22 24 26 28 31 33 35 36 37 39
3 3 3 3 3 4 4 4 4 3 3 3 3 3 4 4 4 4 4 4 4 3 3 3 3 3 3 3 4 5 5 6 6 6 6 6 6 5 6 6 6 7 6 6 7 7 7 8 8 9 11 13 15 17 19 20 22 25 27 30 32 34 35
3 3 3 3 3 3 3 3 4 4 4 3 3 3 4 4 4 4 4 4 3 3 3 3 3 3 3 3 3 4 4 5 6 6 6 6 6 6 6 6 6 6 6 6 7 7 7 7 8 8 9 10 11 13 14 16 18 20 22 25 28 29 31
3 3 3 3 3 3 3 3 3 4 4 3 3 3 4 4 4 4 4 4 4 3 3 3 3 3 3 4 4 4 4 4 5 5 5 5 6 6 7 7 7 6 6 7 7 7 7 7 7 8 8 9 9 10 10 12 14 16 18 20 22 23 25
3 3 3 3 3 3 3 3 3 3 3 3 4 4 4 4 4 4 4 4 4 4 4 4 4 4 4 4 4 5 5 5 4 4 4 4 5 6 7 7 8 8 7 7 7 7 7 7 8 8 8 8 8 8 9 10 10 11 13 15 16 18 19
4 4 3 3 3 3 3 3 3 3 3 3 4 4 4 4 4 4 4 4 4 4 4 4 4 4 4 4 4 5 5 5 4 3 3 4 4 5 6 6 7 8 8 8 8 8 7 7 7 8 8 8 8 8 8 8 9 9 10 11 12 13 14
4 4 4 4 4 3 3 3 3 3 3 4 4 4 4 4 4 4 4 4 4 4 4 4 4 4 4 4 4 5 5 4 4 3 4 5 5 4 5 5 6 6 7 8 9 9 9 8 8 8 8 8 8 9 8 8 8 8 9 9 9 10 10
4 4 4 4 4 4 4 4 3 3 3 4 4 4 4 4 4 4 4 4 4 4 4 4 4 4 5 5 5 5 4 3 3 4 5 5 5 5 5 5 5 6 6 7 8 9 9 9 9 9 9 8 8 8 8 8 8 8 8 8 9 9 8
4 4 4 4 4 4 4 4 4 4 4 4 4 4 4 4 4 4 4 4 4 4 4 4 4 4 4 5 5 5 5 4 4 4 5 5 5 5 5 5 5 5 6 6 6 7 8 9 10 10 10 9 9 9 9 9 8 8 8 9 8 9 8
4 4 4 5 4 4 4 4 4 4 4 4 4 4 4 4 4 4 4 4 4 4 4 4 4 4 4 5 5 5 5 5 4 5 5 5 5 5 6 6 6 6 6 6 6 6 7 8 9 10 10 11 10 10 10 9 9 8 8 9 8 9 9
4 4 4 4 5 5 5 5 4 4 4 4 4 4 4 4 4 4 5 5 4 4 4 4 4 4 5 5 5 5 5 5 5 5 5 5 5 5 6 6 6 6 6 6 6 6 6 7 7 8 9 10 11 11 11 11 11 10 9 9 9 9 9
4 5 5 5 5 5 5 5 5 5 5 4 4 4 4 4 5 5 5 5 5 5 4 4 5 5 5 5 5 5 5 5 5 5 5 6 6 5 6 6 6 7 7 7 7 7 6 7 7 7 8 9 9 10 11 11 11 11 11 11 10 10 10
5 5 5 5 5 5 5 5 5 5 5 5 5 5 5 5 5 5 5 5 5 5 5 5 5 5 5 5 5 5 5 5 6 6 6 6 6 5 5 6 6 6 6 6 7 7 7 7 7 7 8 8 9 9 10 10 11 11 11 11 11 11 11
5 5 5 5 5 5 5 5 5 5 5 5 5 5 5 5 5 5 5 5 5 5 5 5 5 5 5 5 5 5 5 5 5 6 6 6 6 6 6 6 6 6 6 7 7 7 7 7 7 8 8 8 8 8 9 9 10 10 10 10 11 11 11
5 5 5 5 5 5 5 5 6 5 5 6 6 6 5 5 5 5 5 5 5 6 6 6 6 6 6 6 6 5 6 6 6 6 6 6 6 6 6 6 6 6 7 7 7 7 8 8 8 8 8 8 8 8 9 9 9 10 10 10 10 10 10
5 5 5 5 5 6 6 6 6 6 6 6 6 6 6 6 6 6 6 6 6 6 6 6 6 7 6 6 7 7 6 7 7 6 7 7 7 7 7 7 7 7 7 8 8 8 8 9 9 9 9 9 9 9 9 9 9 9 10 10 10 10 10
5 5 5 5 5 6 6 6 6 6 6 6 6 7 7 6 6 6 6 6 6 6 6 7 7 7 7 7 7 7 7 7 8 7 8 8 8 8 8 8 8 8 8 8 9 9 9 9 10 10 10 10 10 10 10 10 10 10 10 10 10 10 10
5 5 5 5 5 6 6 6 7 6 6 7 7 7 7 7 7 7 6 7 7 6 7 7 7 7 7 7 8 8 8 8 8 8 8 8 8 9 9 9 9 9 9 9 9 9 10 10 10 10 11 11 11 11 11 11 11 11 10 10 11 11 11
6 6 6 6 6 6 6 6 6 7 7 7 7 7 7 7 7 7 7 7 7 7 7 7 7 8 8 8 8 8 8 8 8 8 8 9 9 9 9 9 9 9 9 9 9 9 10 10 10 10 11 11 11 11 11 11 11 11 11 11 11 11 10
7 6 7 6 6 6 6 6 6 6 7 7 7 7 7 7 7 8 7 7 7 8 8 8 8 8 8 8 8 8 8 8 8 9 9 9 9 9 9 9 9 9 9 9 9 9 10 10 10 10 10 10 10 10 11 11 11 11 11 11 11 11 10
7 7 7 7 7 7 6 6 6 6 6 7 7 8 8 8 8 8 8 8 8 8 8 8 8 8 8 9 9 9 9 9 9 9 9 9 9 9 9 9 9 9 10 10 10 10 10 9 10 10 10 10 10 10 10 10 10 10 10 10 11 11 11
7 7 8 8 7 8 7 7 7 7 6 7 7 7 8 8 8 8 8 8 8 8 8 8 8 8 9 9 9 9 9 9 10 10 9 9 10 9 9 10 10 10 10 10 10 10 10 10 10 10 10 10 10 10 10 10 10 10 10 10 10 10 11
7 7 8 8 8 8 8 8 7 7 7 7 7 7 8 8 8 9 9 9 9 9 9 9 9 9 9 9 9 10 10 10 10 10 10 10 10 10 10 10 10 10 10 10 10 10 10 10 10 10 10 10 10 10 10 10 10 10 10 10 10 10 10